Time,TemperatureF,DewpointF,PressureIn,WindDirection,WindDirectionDegrees,WindSpeedMPH,WindSpeedGustMPH,Humidity,HourlyPrecipIn,Conditions,Clouds,dailyrainin,SolarRadiationWatts/m^2,SoftwareType,DateUTC
2013-09-30 00:01:00,47.2,43.8,30.08,WNW,302,0.0,0.0,88,0.00,,,0.00,0,WeatherCatV1.20B785,2013-09-30 04:01:00,
2013-09-30 00:06:00,47.1,43.7,30.08,WNW,302,0.0,0.0,88,0.00,,,0.00,0,WeatherCatV1.20B785,2013-09-30 04:06:00,
2013-09-30 00:07:00,47.1,43.7,30.08,WNW,302,0.0,0.0,88,0.00,,,0.00,0,WeatherCatV1.20B785,2013-09-30 04:07:00,
2013-09-30 00:08:00,47.1,43.7,30.08,WNW,302,0.0,0.0,88,0.00,,,0.00,0,WeatherCatV1.20B785,2013-09-30 04:08:00,
2013-09-30 00:11:00,46.9,43.5,30.08,WNW,302,0.0,0.0,88,0.00,,,0.00,0,WeatherCatV1.20B785,2013-09-30 04:11:00,
2013-09-30 00:12:00,46.9,43.5,30.08,WNW,302,0.0,0.0,88,0.00,,,0.00,0,WeatherCatV1.20B785,2013-09-30 04:12:00,
2013-09-30 00:13:00,46.9,43.5,30.08,WNW,302,0.0,0.0,88,0.00,,,0.00,0,WeatherCatV1.20B785,2013-09-30 04:13:00,
2013-09-30 00:16:00,46.8,43.4,30.08,WNW,302,0.0,0.0,88,0.00,,,0.00,0,WeatherCatV1.20B785,2013-09-30 04:16:00,
2013-09-30 00:17:00,46.8,43.4,30.08,WNW,302,0.0,0.0,88,0.00,,,0.00,0,WeatherCatV1.20B785,2013-09-30 04:17:00,
2013-09-30 00:19:00,46.8,43.4,30.08,WNW,302,0.0,0.0,88,0.00,,,0.00,0,WeatherCatV1.20B785,2013-09-30 04:19:00,
2013-09-30 00:21:00,46.7,43.3,30.08,WNW,302,0.0,0.0,88,0.00,,,0.00,0,WeatherCatV1.20B785,2013-09-30 04:21:00,
2013-09-30 00:22:00,46.7,43.3,30.08,WNW,302,0.0,0.0,88,0.00,,,0.00,0,WeatherCatV1.20B785,2013-09-30 04:22:00,
2013-09-30 00:23:00,46.7,43.3,30.08,WNW,302,0.0,0.0,88,0.00,,,0.00,0,WeatherCatV1.20B785,2013-09-30 04:23:00,
2013-09-30 00:24:00,46.7,43.3,30.08,WNW,302,0.0,0.0,88,0.00,,,0.00,0,WeatherCatV1.20B785,2013-09-30 04:24:00,
2013-09-30 00:26:00,46.6,43.2,30.08,WNW,302,0.0,0.0,88,0.00,,,0.00,0,WeatherCatV1.20B785,2013-09-30 04:26:00,
2013-09-30 00:27:00,46.6,43.2,30.08,WNW,302,0.0,0.0,88,0.00,,,0.00,0,WeatherCatV1.20B785,2013-09-30 04:27:00,
2013-09-30 00:29:00,46.6,43.2,30.07,WNW,302,0.0,0.0,88,0.00,,,0.00,0,WeatherCatV1.20B785,2013-09-30 04:29:00,
2013-09-30 00:31:00,46.6,43.2,30.07,WNW,302,0.0,0.0,88,0.00,,,0.00,0,WeatherCatV1.20B785,2013-09-30 04:31:00,
2013-09-30 00:32:00,46.6,43.2,30.07,WNW,302,0.0,0.0,88,0.00,,,0.00,0,WeatherCatV1.20B785,2013-09-30 04:32:00,
2013-09-30 00:34:00,46.5,43.1,30.07,WNW,302,0.0,0.0,88,0.00,,,0.00,0,WeatherCatV1.20B785,2013-09-30 04:34:00,
2013-09-30 00:35:00,46.5,43.1,30.07,WNW,302,0.0,0.0,88,0.00,,,0.00,0,WeatherCatV1.20B785,2013-09-30 04:35:00,
2013-09-30 00:38:00,46.4,43.0,30.07,WNW,302,0.0,0.0,88,0.00,,,0.00,0,WeatherCatV1.20B785,2013-09-30 04:38:00,
2013-09-30 00:40:00,46.3,42.9,30.07,WNW,302,0.0,0.0,88,0.00,,,0.00,0,WeatherCatV1.20B785,2013-09-30 04:40:00,
2013-09-30 00:43:00,46.1,42.8,30.07,WNW,302,0.0,0.0,88,0.00,,,0.00,0,WeatherCatV1.20B785,2013-09-30 04:43:00,
2013-09-30 00:45:00,46.1,42.8,30.07,WNW,302,0.0,0.0,88,0.00,,,0.00,0,WeatherCatV1.20B785,2013-09-30 04:45:00,
2013-09-30 00:48:00,46.0,42.7,30.07,WNW,302,0.0,1.0,88,0.00,,,0.00,0,WeatherCatV1.20B785,2013-09-30 04:48:00,
2013-09-30 00:50:00,45.9,42.5,30.07,WNW,302,0.0,0.0,88,0.00,,,0.00,0,WeatherCatV1.20B785,2013-09-30 04:50:00,
2013-09-30 00:51:00,45.9,42.5,30.07,WNW,302,0.0,0.0,88,0.00,,,0.00,0,WeatherCatV1.20B785,2013-09-30 04:51:00,
2013-09-30 00:54:00,45.9,42.5,30.07,WNW,302,1.0,1.0,88,0.00,,,0.00,0,WeatherCatV1.20B785,2013-09-30 04:54:00,
2013-09-30 00:56:00,45.8,42.5,30.07,WNW,302,0.0,1.0,88,0.00,,,0.00,0,WeatherCatV1.20B785,2013-09-30 04:56:00,
2013-09-30 00:59:00,45.8,42.5,30.07,WNW,302,0.0,1.0,88,0.00,,,0.00,0,WeatherCatV1.20B785,2013-09-30 04:59:00,
2013-09-30 01:01:00,45.9,42.2,30.07,WNW,302,0.0,1.0,87,0.00,,,0.00,0,WeatherCatV1.20B785,2013-09-30 05:01:00,
2013-09-30 01:04:00,45.9,42.2,30.07,WNW,302,0.0,0.0,87,0.00,,,0.00,0,WeatherCatV1.20B785,2013-09-30 05:04:00,
2013-09-30 01:05:00,46.0,42.3,30.07,WNW,302,0.0,0.0,87,0.00,,,0.00,0,WeatherCatV1.20B785,2013-09-30 05:05:00,
2013-09-30 01:06:00,45.9,42.2,30.07,WNW,302,0.0,0.0,87,0.00,,,0.00,0,WeatherCatV1.20B785,2013-09-30 05:06:00,
2013-09-30 01:07:00,45.9,42.2,30.07,WNW,302,0.0,0.0,87,0.00,,,0.00,0,WeatherCatV1.20B785,2013-09-30 05:07:00,
2013-09-30 01:09:00,45.9,42.5,30.07,WNW,302,0.0,0.0,88,0.00,,,0.00,0,WeatherCatV1.20B785,2013-09-30 05:09:00,
2013-09-30 01:10:00,45.9,42.2,30.07,WNW,302,0.0,0.0,87,0.00,,,0.00,0,WeatherCatV1.20B785,2013-09-30 05:10:00,
2013-09-30 01:11:00,45.8,42.2,30.07,WNW,302,0.0,0.0,87,0.00,,,0.00,0,WeatherCatV1.20B785,2013-09-30 05:11:00,
2013-09-30 01:12:00,45.8,42.2,30.07,WNW,302,0.0,0.0,87,0.00,,,0.00,0,WeatherCatV1.20B785,2013-09-30 05:12:00,
2013-09-30 01:14:00,45.8,42.5,30.07,WNW,302,0.0,0.0,88,0.00,,,0.00,0,WeatherCatV1.20B785,2013-09-30 05:14:00,
2013-09-30 01:15:00,45.7,42.3,30.07,WNW,302,0.0,0.0,88,0.00,,,0.00,0,WeatherCatV1.20B785,2013-09-30 05:15:00,
2013-09-30 01:16:00,45.7,42.3,30.07,WNW,302,0.0,0.0,88,0.00,,,0.00,0,WeatherCatV1.20B785,2013-09-30 05:16:00,
2013-09-30 01:17:00,45.7,42.1,30.07,WNW,302,0.0,0.0,87,0.00,,,0.00,0,WeatherCatV1.20B785,2013-09-30 05:17:00,
2013-09-30 01:19:00,45.7,42.1,30.07,WNW,302,0.0,0.0,87,0.00,,,0.00,0,WeatherCatV1.20B785,2013-09-30 05:19:00,
2013-09-30 01:20:00,45.7,42.1,30.07,WNW,302,0.0,0.0,87,0.00,,,0.00,0,WeatherCatV1.20B785,2013-09-30 05:20:00,
2013-09-30 01:21:00,45.7,42.1,30.07,WNW,302,0.0,0.0,87,0.00,,,0.00,0,WeatherCatV1.20B785,2013-09-30 05:21:00,
2013-09-30 01:22:00,45.7,42.1,30.07,WNW,302,0.0,0.0,87,0.00,,,0.00,0,WeatherCatV1.20B785,2013-09-30 05:22:00,
2013-09-30 01:24:00,45.7,42.1,30.07,WNW,302,0.0,0.0,87,0.00,,,0.00,0,WeatherCatV1.20B785,2013-09-30 05:24:00,
2013-09-30 01:25:00,45.6,42.0,30.07,WNW,302,0.0,0.0,87,0.00,,,0.00,0,WeatherCatV1.20B785,2013-09-30 05:25:00,
2013-09-30 01:26:00,45.6,42.2,30.07,WNW,302,0.0,0.0,88,0.00,,,0.00,0,WeatherCatV1.20B785,2013-09-30 05:26:00,
2013-09-30 01:27:00,45.5,42.2,30.07,WNW,302,0.0,0.0,88,0.00,,,0.00,0,WeatherCatV1.20B785,2013-09-30 05:27:00,
2013-09-30 01:28:00,45.5,42.2,30.07,WNW,302,0.0,0.0,88,0.00,,,0.00,0,WeatherCatV1.20B785,2013-09-30 05:28:00,
2013-09-30 01:30:00,45.4,42.1,30.07,WNW,302,0.0,0.0,88,0.00,,,0.00,0,WeatherCatV1.20B785,2013-09-30 05:30:00,
2013-09-30 01:31:00,45.4,42.1,30.07,WNW,302,0.0,0.0,88,0.00,,,0.00,0,WeatherCatV1.20B785,2013-09-30 05:31:00,
2013-09-30 01:33:00,45.3,42.0,30.07,WNW,302,0.0,0.0,88,0.00,,,0.00,0,WeatherCatV1.20B785,2013-09-30 05:33:00,
2013-09-30 01:35:00,45.3,42.0,30.07,WNW,302,0.0,0.0,88,0.00,,,0.00,0,WeatherCatV1.20B785,2013-09-30 05:35:00,
2013-09-30 01:36:00,45.3,42.0,30.07,WNW,302,0.0,0.0,88,0.00,,,0.00,0,WeatherCatV1.20B785,2013-09-30 05:36:00,
2013-09-30 01:38:00,45.2,41.9,30.07,WNW,302,0.0,0.0,88,0.00,,,0.00,0,WeatherCatV1.20B785,2013-09-30 05:38:00,
2013-09-30 01:39:00,45.2,41.9,30.07,WNW,302,0.0,0.0,88,0.00,,,0.00,0,WeatherCatV1.20B785,2013-09-30 05:39:00,
2013-09-30 01:41:00,45.2,41.9,30.07,WNW,302,0.0,0.0,88,0.00,,,0.00,0,WeatherCatV1.20B785,2013-09-30 05:41:00,
2013-09-30 01:42:00,45.2,41.9,30.07,WNW,302,0.0,0.0,88,0.00,,,0.00,0,WeatherCatV1.20B785,2013-09-30 05:42:00,
2013-09-30 01:44:00,45.2,41.9,30.07,WNW,302,0.0,0.0,88,0.00,,,0.00,0,WeatherCatV1.20B785,2013-09-30 05:44:00,
2013-09-30 01:45:00,45.1,41.8,30.07,WNW,302,0.0,0.0,88,0.00,,,0.00,0,WeatherCatV1.20B785,2013-09-30 05:45:00,
2013-09-30 01:46:00,45.1,41.8,30.07,WNW,302,0.0,0.0,88,0.00,,,0.00,0,WeatherCatV1.20B785,2013-09-30 05:46:00,
2013-09-30 01:47:00,45.1,41.8,30.07,WNW,302,0.0,0.0,88,0.00,,,0.00,0,WeatherCatV1.20B785,2013-09-30 05:47:00,
2013-09-30 01:49:00,45.0,41.7,30.07,WNW,302,0.0,0.0,88,0.00,,,0.00,0,WeatherCatV1.20B785,2013-09-30 05:49:00,
2013-09-30 01:50:00,45.0,41.7,30.07,WNW,302,0.0,0.0,88,0.00,,,0.00,0,WeatherCatV1.20B785,2013-09-30 05:50:00,
2013-09-30 01:51:00,45.0,41.7,30.07,WNW,302,0.0,0.0,88,0.00,,,0.00,0,WeatherCatV1.20B785,2013-09-30 05:51:00,
2013-09-30 01:52:00,45.0,41.7,30.07,WNW,302,0.0,0.0,88,0.00,,,0.00,0,WeatherCatV1.20B785,2013-09-30 05:52:00,
2013-09-30 01:54:00,45.0,41.4,30.07,WNW,302,0.0,0.0,87,0.00,,,0.00,0,WeatherCatV1.20B785,2013-09-30 05:54:00,
2013-09-30 01:55:00,45.0,41.4,30.07,WNW,302,0.0,0.0,87,0.00,,,0.00,0,WeatherCatV1.20B785,2013-09-30 05:55:00,
2013-09-30 01:56:00,45.0,41.4,30.07,WNW,302,0.0,0.0,87,0.00,,,0.00,0,WeatherCatV1.20B785,2013-09-30 05:56:00,
2013-09-30 01:57:00,45.1,41.5,30.07,WNW,302,0.0,0.0,87,0.00,,,0.00,0,WeatherCatV1.20B785,2013-09-30 05:57:00,
2013-09-30 01:58:00,45.0,41.4,30.07,WNW,302,0.0,0.0,87,0.00,,,0.00,0,WeatherCatV1.20B785,2013-09-30 05:58:00,
2013-09-30 02:01:00,45.0,41.4,30.07,WNW,302,0.0,0.0,87,0.00,,,0.00,0,WeatherCatV1.20B785,2013-09-30 06:01:00,
2013-09-30 02:02:00,45.0,41.4,30.07,WNW,302,0.0,0.0,87,0.00,,,0.00,0,WeatherCatV1.20B785,2013-09-30 06:02:00,
2013-09-30 02:03:00,45.0,41.4,30.07,WNW,302,0.0,0.0,87,0.00,,,0.00,0,WeatherCatV1.20B785,2013-09-30 06:03:00,
2013-09-30 02:07:00,44.8,41.5,30.07,WNW,302,0.0,0.0,88,0.00,,,0.00,0,WeatherCatV1.20B785,2013-09-30 06:07:00,
2013-09-30 02:09:00,44.7,41.4,30.07,WNW,302,0.0,0.0,88,0.00,,,0.00,0,WeatherCatV1.20B785,2013-09-30 06:09:00,
2013-09-30 02:12:00,44.7,41.4,30.07,WNW,302,0.0,0.0,88,0.00,,,0.00,0,WeatherCatV1.20B785,2013-09-30 06:12:00,
2013-09-30 02:13:00,44.7,41.4,30.07,WNW,302,0.0,0.0,88,0.00,,,0.00,0,WeatherCatV1.20B785,2013-09-30 06:13:00,
2013-09-30 02:15:00,44.6,41.3,30.07,WNW,302,0.0,0.0,88,0.00,,,0.00,0,WeatherCatV1.20B785,2013-09-30 06:15:00,
2013-09-30 02:17:00,44.6,41.3,30.08,WNW,302,0.0,0.0,88,0.00,,,0.00,0,WeatherCatV1.20B785,2013-09-30 06:17:00,
2013-09-30 02:18:00,44.5,41.2,30.08,WNW,302,0.0,0.0,88,0.00,,,0.00,0,WeatherCatV1.20B785,2013-09-30 06:18:00,
2013-09-30 02:19:00,44.5,41.2,30.08,WNW,302,0.0,0.0,88,0.00,,,0.00,0,WeatherCatV1.20B785,2013-09-30 06:19:00,
2013-09-30 02:20:00,44.4,41.1,30.07,WNW,302,0.0,0.0,88,0.00,,,0.00,0,WeatherCatV1.20B785,2013-09-30 06:20:00,
2013-09-30 02:22:00,44.3,41.0,30.07,WNW,302,0.0,0.0,88,0.00,,,0.00,0,WeatherCatV1.20B785,2013-09-30 06:22:00,
2013-09-30 02:23:00,44.3,41.0,30.07,WNW,302,0.0,0.0,88,0.00,,,0.00,0,WeatherCatV1.20B785,2013-09-30 06:23:00,
2013-09-30 02:25:00,44.3,41.0,30.07,WNW,302,0.0,0.0,88,0.00,,,0.00,0,WeatherCatV1.20B785,2013-09-30 06:25:00,
2013-09-30 02:26:00,44.3,41.0,30.07,WNW,302,0.0,0.0,88,0.00,,,0.00,0,WeatherCatV1.20B785,2013-09-30 06:26:00,
2013-09-30 02:27:00,44.3,40.7,30.07,WNW,302,0.0,0.0,87,0.00,,,0.00,0,WeatherCatV1.20B785,2013-09-30 06:27:00,
2013-09-30 02:29:00,44.3,40.7,30.07,WNW,302,0.0,0.0,87,0.00,,,0.00,0,WeatherCatV1.20B785,2013-09-30 06:29:00,
2013-09-30 02:30:00,44.4,40.8,30.07,WNW,302,0.0,0.0,87,0.00,,,0.00,0,WeatherCatV1.20B785,2013-09-30 06:30:00,
2013-09-30 02:32:00,44.5,40.9,30.07,WNW,302,0.0,0.0,87,0.00,,,0.00,0,WeatherCatV1.20B785,2013-09-30 06:32:00,
2013-09-30 02:34:00,44.6,40.7,30.07,WNW,302,0.0,0.0,86,0.00,,,0.00,0,WeatherCatV1.20B785,2013-09-30 06:34:00,
2013-09-30 02:36:00,44.7,40.8,30.07,WNW,302,0.0,0.0,86,0.00,,,0.00,0,WeatherCatV1.20B785,2013-09-30 06:36:00,
2013-09-30 02:37:00,44.7,41.1,30.07,WNW,302,0.0,0.0,87,0.00,,,0.00,0,WeatherCatV1.20B785,2013-09-30 06:37:00,
2013-09-30 02:38:00,44.7,41.1,30.07,WNW,302,0.0,0.0,87,0.00,,,0.00,0,WeatherCatV1.20B785,2013-09-30 06:38:00,
2013-09-30 02:39:00,44.7,41.1,30.07,WNW,302,0.0,0.0,87,0.00,,,0.00,0,WeatherCatV1.20B785,2013-09-30 06:39:00,
2013-09-30 02:40:00,44.7,41.1,30.07,WNW,302,0.0,0.0,87,0.00,,,0.00,0,WeatherCatV1.20B785,2013-09-30 06:40:00,
2013-09-30 02:41:00,44.7,41.1,30.07,WNW,302,0.0,0.0,87,0.00,,,0.00,0,WeatherCatV1.20B785,2013-09-30 06:41:00,
2013-09-30 02:43:00,44.7,41.1,30.07,WNW,302,0.0,0.0,87,0.00,,,0.00,0,WeatherCatV1.20B785,2013-09-30 06:43:00,
2013-09-30 02:44:00,44.7,41.1,30.07,WNW,302,0.0,0.0,87,0.00,,,0.00,0,WeatherCatV1.20B785,2013-09-30 06:44:00,
2013-09-30 02:45:00,44.6,41.0,30.07,WNW,302,0.0,0.0,87,0.00,,,0.00,0,WeatherCatV1.20B785,2013-09-30 06:45:00,
2013-09-30 02:46:00,44.6,41.0,30.07,WNW,302,0.0,0.0,87,0.00,,,0.00,0,WeatherCatV1.20B785,2013-09-30 06:46:00,
2013-09-30 02:48:00,44.5,40.9,30.07,WNW,302,0.0,0.0,87,0.00,,,0.00,0,WeatherCatV1.20B785,2013-09-30 06:48:00,
2013-09-30 02:49:00,44.5,40.9,30.07,WNW,302,0.0,0.0,87,0.00,,,0.00,0,WeatherCatV1.20B785,2013-09-30 06:49:00,
2013-09-30 02:50:00,44.5,40.9,30.07,WNW,302,0.0,0.0,87,0.00,,,0.00,0,WeatherCatV1.20B785,2013-09-30 06:50:00,
2013-09-30 02:51:00,44.5,40.9,30.07,WNW,302,0.0,0.0,87,0.00,,,0.00,0,WeatherCatV1.20B785,2013-09-30 06:51:00,
2013-09-30 02:54:00,44.4,40.8,30.07,WNW,302,0.0,1.0,87,0.00,,,0.00,0,WeatherCatV1.20B785,2013-09-30 06:54:00,
2013-09-30 02:56:00,44.4,40.8,30.07,WNW,302,1.0,1.0,87,0.00,,,0.00,0,WeatherCatV1.20B785,2013-09-30 06:56:00,
2013-09-30 02:57:00,44.4,40.8,30.07,WNW,302,0.0,1.0,87,0.00,,,0.00,0,WeatherCatV1.20B785,2013-09-30 06:57:00,
2013-09-30 03:01:00,44.3,40.7,30.07,WNW,302,0.0,1.0,87,0.00,,,0.00,0,WeatherCatV1.20B785,2013-09-30 07:01:00,
2013-09-30 03:02:00,44.2,40.6,30.07,WNW,302,0.0,1.0,87,0.00,,,0.00,0,WeatherCatV1.20B785,2013-09-30 07:02:00,
2013-09-30 03:06:00,44.1,40.5,30.07,WNW,302,0.0,0.0,87,0.00,,,0.00,0,WeatherCatV1.20B785,2013-09-30 07:06:00,
2013-09-30 03:07:00,44.1,40.5,30.07,WNW,302,0.0,0.0,87,0.00,,,0.00,0,WeatherCatV1.20B785,2013-09-30 07:07:00,
2013-09-30 03:11:00,44.1,40.5,30.06,WNW,302,0.0,0.0,87,0.00,,,0.00,0,WeatherCatV1.20B785,2013-09-30 07:11:00,
2013-09-30 03:12:00,44.2,40.6,30.07,WNW,302,0.0,0.0,87,0.00,,,0.00,0,WeatherCatV1.20B785,2013-09-30 07:12:00,
2013-09-30 03:13:00,44.2,40.6,30.07,WNW,302,0.0,0.0,87,0.00,,,0.00,0,WeatherCatV1.20B785,2013-09-30 07:13:00,
2013-09-30 03:17:00,44.3,40.7,30.06,WNW,302,0.0,0.0,87,0.00,,,0.00,0,WeatherCatV1.20B785,2013-09-30 07:17:00,
2013-09-30 03:18:00,44.3,40.7,30.07,WNW,302,0.0,0.0,87,0.00,,,0.00,0,WeatherCatV1.20B785,2013-09-30 07:18:00,
2013-09-30 03:22:00,44.4,40.5,30.06,WNW,302,0.0,0.0,86,0.00,,,0.00,0,WeatherCatV1.20B785,2013-09-30 07:22:00,
2013-09-30 03:23:00,44.5,40.6,30.06,WNW,302,0.0,0.0,86,0.00,,,0.00,0,WeatherCatV1.20B785,2013-09-30 07:23:00,
2013-09-30 03:25:00,44.5,40.6,30.06,WNW,302,0.0,0.0,86,0.00,,,0.00,0,WeatherCatV1.20B785,2013-09-30 07:25:00,
2013-09-30 03:27:00,44.5,40.6,30.06,WNW,302,0.0,0.0,86,0.00,,,0.00,0,WeatherCatV1.20B785,2013-09-30 07:27:00,
2013-09-30 03:28:00,44.5,40.6,30.06,WNW,302,0.0,0.0,86,0.00,,,0.00,0,WeatherCatV1.20B785,2013-09-30 07:28:00,
2013-09-30 03:29:00,44.5,40.6,30.06,WNW,302,0.0,0.0,86,0.00,,,0.00,0,WeatherCatV1.20B785,2013-09-30 07:29:00,
2013-09-30 03:30:00,44.5,40.6,30.06,WNW,302,0.0,0.0,86,0.00,,,0.00,0,WeatherCatV1.20B785,2013-09-30 07:30:00,
2013-09-30 03:32:00,44.5,40.6,30.06,WNW,302,0.0,0.0,86,0.00,,,0.00,0,WeatherCatV1.20B785,2013-09-30 07:32:00,
2013-09-30 03:33:00,44.5,40.6,30.06,WNW,302,0.0,0.0,86,0.00,,,0.00,0,WeatherCatV1.20B785,2013-09-30 07:33:00,
2013-09-30 03:35:00,44.5,40.6,30.06,WNW,302,0.0,0.0,86,0.00,,,0.00,0,WeatherCatV1.20B785,2013-09-30 07:35:00,
2013-09-30 03:37:00,44.5,40.6,30.07,WNW,302,0.0,0.0,86,0.00,,,0.00,0,WeatherCatV1.20B785,2013-09-30 07:37:00,
2013-09-30 03:38:00,44.5,40.6,30.06,WNW,302,0.0,0.0,86,0.00,,,0.00,0,WeatherCatV1.20B785,2013-09-30 07:38:00,
2013-09-30 03:39:00,44.6,40.7,30.06,WNW,302,0.0,0.0,86,0.00,,,0.00,0,WeatherCatV1.20B785,2013-09-30 07:39:00,
2013-09-30 03:40:00,44.5,40.6,30.07,WNW,302,1.0,1.0,86,0.00,,,0.00,0,WeatherCatV1.20B785,2013-09-30 07:40:00,
2013-09-30 03:44:00,44.3,40.7,30.07,WNW,302,0.0,0.0,87,0.00,,,0.00,0,WeatherCatV1.20B785,2013-09-30 07:44:00,
2013-09-30 03:46:00,44.3,40.7,30.07,WNW,302,0.0,0.0,87,0.00,,,0.00,0,WeatherCatV1.20B785,2013-09-30 07:46:00,
2013-09-30 03:49:00,44.3,40.7,30.07,WNW,302,0.0,0.0,87,0.00,,,0.00,0,WeatherCatV1.20B785,2013-09-30 07:49:00,
2013-09-30 03:51:00,44.3,40.7,30.07,WNW,302,0.0,0.0,87,0.00,,,0.00,0,WeatherCatV1.20B785,2013-09-30 07:51:00,
2013-09-30 03:54:00,44.1,40.5,30.06,WNW,302,0.0,0.0,87,0.00,,,0.00,0,WeatherCatV1.20B785,2013-09-30 07:54:00,
2013-09-30 03:56:00,44.1,40.5,30.07,WNW,302,0.0,0.0,87,0.00,,,0.00,0,WeatherCatV1.20B785,2013-09-30 07:56:00,
2013-09-30 03:59:00,44.0,40.4,30.07,WNW,302,0.0,0.0,87,0.00,,,0.00,0,WeatherCatV1.20B785,2013-09-30 07:59:00,
2013-09-30 04:00:00,43.9,40.3,30.07,WNW,302,0.0,0.0,87,0.00,,,0.00,0,WeatherCatV1.20B785,2013-09-30 08:00:00,
2013-09-30 04:01:00,43.9,40.3,30.07,WNW,302,0.0,0.0,87,0.00,,,0.00,0,WeatherCatV1.20B785,2013-09-30 08:01:00,
2013-09-30 04:03:00,43.9,40.3,30.07,WNW,302,0.0,0.0,87,0.00,,,0.00,0,WeatherCatV1.20B785,2013-09-30 08:03:00,
2013-09-30 04:04:00,43.8,40.2,30.06,WNW,302,0.0,0.0,87,0.00,,,0.00,0,WeatherCatV1.20B785,2013-09-30 08:04:00,
2013-09-30 04:05:00,43.8,40.2,30.06,WNW,302,0.0,0.0,87,0.00,,,0.00,0,WeatherCatV1.20B785,2013-09-30 08:05:00,
2013-09-30 04:07:00,43.8,40.2,30.06,WNW,302,0.0,0.0,87,0.00,,,0.00,0,WeatherCatV1.20B785,2013-09-30 08:07:00,
2013-09-30 04:10:00,43.7,40.1,30.06,WNW,302,0.0,0.0,87,0.00,,,0.00,0,WeatherCatV1.20B785,2013-09-30 08:10:00,
2013-09-30 04:12:00,43.7,40.1,30.06,WNW,302,0.0,0.0,87,0.00,,,0.00,0,WeatherCatV1.20B785,2013-09-30 08:12:00,
2013-09-30 04:15:00,43.6,40.0,30.07,WNW,302,0.0,0.0,87,0.00,,,0.00,0,WeatherCatV1.20B785,2013-09-30 08:15:00,
2013-09-30 04:17:00,43.6,40.0,30.07,WNW,302,0.0,0.0,87,0.00,,,0.00,0,WeatherCatV1.20B785,2013-09-30 08:17:00,
2013-09-30 04:18:00,43.6,40.0,30.06,WNW,302,0.0,0.0,87,0.00,,,0.00,0,WeatherCatV1.20B785,2013-09-30 08:18:00,
2013-09-30 04:21:00,43.5,39.9,30.06,WNW,302,0.0,0.0,87,0.00,,,0.00,0,WeatherCatV1.20B785,2013-09-30 08:21:00,
2013-09-30 04:22:00,43.5,39.9,30.06,WNW,302,0.0,0.0,87,0.00,,,0.00,0,WeatherCatV1.20B785,2013-09-30 08:22:00,
2013-09-30 04:23:00,43.5,39.9,30.06,WNW,302,0.0,0.0,87,0.00,,,0.00,0,WeatherCatV1.20B785,2013-09-30 08:23:00,
2013-09-30 04:24:00,43.5,39.9,30.06,WNW,302,0.0,0.0,87,0.00,,,0.00,0,WeatherCatV1.20B785,2013-09-30 08:24:00,
2013-09-30 04:26:00,43.4,39.8,30.07,WNW,302,0.0,0.0,87,0.00,,,0.00,0,WeatherCatV1.20B785,2013-09-30 08:26:00,
2013-09-30 04:27:00,43.4,39.8,30.07,WNW,302,0.0,0.0,87,0.00,,,0.00,0,WeatherCatV1.20B785,2013-09-30 08:27:00,
2013-09-30 04:28:00,43.4,39.8,30.07,WNW,302,0.0,0.0,87,0.00,,,0.00,0,WeatherCatV1.20B785,2013-09-30 08:28:00,
2013-09-30 04:29:00,43.4,39.8,30.07,WNW,302,0.0,0.0,87,0.00,,,0.00,0,WeatherCatV1.20B785,2013-09-30 08:29:00,
2013-09-30 04:31:00,43.3,39.7,30.07,WNW,302,0.0,0.0,87,0.00,,,0.00,0,WeatherCatV1.20B785,2013-09-30 08:31:00,
2013-09-30 04:32:00,43.3,39.7,30.07,WNW,302,0.0,0.0,87,0.00,,,0.00,0,WeatherCatV1.20B785,2013-09-30 08:32:00,
2013-09-30 04:33:00,43.3,39.7,30.07,WNW,302,0.0,0.0,87,0.00,,,0.00,0,WeatherCatV1.20B785,2013-09-30 08:33:00,
2013-09-30 04:34:00,43.3,39.7,30.07,WNW,302,0.0,0.0,87,0.00,,,0.00,0,WeatherCatV1.20B785,2013-09-30 08:34:00,
2013-09-30 04:36:00,43.3,39.7,30.07,WNW,302,0.0,0.0,87,0.00,,,0.00,0,WeatherCatV1.20B785,2013-09-30 08:36:00,
2013-09-30 04:37:00,43.3,39.7,30.07,WNW,302,0.0,0.0,87,0.00,,,0.00,0,WeatherCatV1.20B785,2013-09-30 08:37:00,
2013-09-30 04:39:00,43.3,39.7,30.07,WNW,302,0.0,0.0,87,0.00,,,0.00,0,WeatherCatV1.20B785,2013-09-30 08:39:00,
2013-09-30 04:40:00,43.3,39.7,30.07,WNW,302,0.0,0.0,87,0.00,,,0.00,0,WeatherCatV1.20B785,2013-09-30 08:40:00,
2013-09-30 04:41:00,43.3,39.7,30.07,WNW,302,0.0,0.0,87,0.00,,,0.00,0,WeatherCatV1.20B785,2013-09-30 08:41:00,
2013-09-30 04:43:00,43.3,39.7,30.07,WNW,302,0.0,0.0,87,0.00,,,0.00,0,WeatherCatV1.20B785,2013-09-30 08:43:00,
2013-09-30 04:44:00,43.2,39.6,30.07,WNW,302,0.0,0.0,87,0.00,,,0.00,0,WeatherCatV1.20B785,2013-09-30 08:44:00,
2013-09-30 04:46:00,43.2,39.6,30.07,WNW,302,0.0,0.0,87,0.00,,,0.00,0,WeatherCatV1.20B785,2013-09-30 08:46:00,
2013-09-30 04:47:00,43.2,39.6,30.07,WNW,302,0.0,0.0,87,0.00,,,0.00,0,WeatherCatV1.20B785,2013-09-30 08:47:00,
2013-09-30 04:48:00,43.2,39.6,30.07,WNW,302,0.0,0.0,87,0.00,,,0.00,0,WeatherCatV1.20B785,2013-09-30 08:48:00,
2013-09-30 04:49:00,43.2,39.6,30.07,WNW,302,0.0,0.0,87,0.00,,,0.00,0,WeatherCatV1.20B785,2013-09-30 08:49:00,
2013-09-30 04:51:00,43.2,39.6,30.07,WNW,302,0.0,0.0,87,0.00,,,0.00,0,WeatherCatV1.20B785,2013-09-30 08:51:00,
2013-09-30 04:52:00,43.2,39.6,30.07,WNW,302,0.0,0.0,87,0.00,,,0.00,0,WeatherCatV1.20B785,2013-09-30 08:52:00,
2013-09-30 04:53:00,43.2,39.6,30.07,WNW,302,0.0,0.0,87,0.00,,,0.00,0,WeatherCatV1.20B785,2013-09-30 08:53:00,
2013-09-30 04:55:00,43.2,39.6,30.07,WNW,302,0.0,0.0,87,0.00,,,0.00,0,WeatherCatV1.20B785,2013-09-30 08:55:00,
2013-09-30 04:58:00,43.1,39.5,30.07,WNW,302,0.0,0.0,87,0.00,,,0.00,0,WeatherCatV1.20B785,2013-09-30 08:58:00,
2013-09-30 05:01:00,43.1,39.5,30.07,WNW,302,0.0,0.0,87,0.00,,,0.00,0,WeatherCatV1.20B785,2013-09-30 09:01:00,
2013-09-30 05:03:00,43.1,39.5,30.07,WNW,302,0.0,0.0,87,0.00,,,0.00,0,WeatherCatV1.20B785,2013-09-30 09:03:00,
2013-09-30 05:04:00,43.1,39.5,30.07,WNW,302,0.0,0.0,87,0.00,,,0.00,0,WeatherCatV1.20B785,2013-09-30 09:04:00,
2013-09-30 05:06:00,43.1,39.5,30.07,WNW,302,0.0,0.0,87,0.00,,,0.00,0,WeatherCatV1.20B785,2013-09-30 09:06:00,
2013-09-30 05:08:00,43.1,39.5,30.07,WNW,302,0.0,0.0,87,0.00,,,0.00,0,WeatherCatV1.20B785,2013-09-30 09:08:00,
2013-09-30 05:09:00,43.1,39.5,30.07,WNW,302,0.0,0.0,87,0.00,,,0.00,0,WeatherCatV1.20B785,2013-09-30 09:09:00,
2013-09-30 05:10:00,43.1,39.5,30.07,WNW,302,0.0,0.0,87,0.00,,,0.00,0,WeatherCatV1.20B785,2013-09-30 09:10:00,
2013-09-30 05:11:00,43.2,39.6,30.07,WNW,302,0.0,0.0,87,0.00,,,0.00,0,WeatherCatV1.20B785,2013-09-30 09:11:00,
2013-09-30 05:14:00,43.2,39.6,30.07,WNW,302,0.0,0.0,87,0.00,,,0.00,0,WeatherCatV1.20B785,2013-09-30 09:14:00,
2013-09-30 05:16:00,43.2,39.6,30.07,WNW,302,0.0,0.0,87,0.00,,,0.00,0,WeatherCatV1.20B785,2013-09-30 09:16:00,
2013-09-30 05:19:00,43.2,39.6,30.07,WNW,302,0.0,0.0,87,0.00,,,0.00,0,WeatherCatV1.20B785,2013-09-30 09:19:00,
2013-09-30 05:20:00,43.2,39.6,30.07,WNW,302,0.0,0.0,87,0.00,,,0.00,0,WeatherCatV1.20B785,2013-09-30 09:20:00,
2013-09-30 05:21:00,43.2,39.6,30.07,WNW,302,0.0,0.0,87,0.00,,,0.00,0,WeatherCatV1.20B785,2013-09-30 09:21:00,
2013-09-30 05:22:00,43.2,39.6,30.07,WNW,302,0.0,0.0,87,0.00,,,0.00,0,WeatherCatV1.20B785,2013-09-30 09:22:00,
2013-09-30 05:24:00,43.2,39.6,30.07,WNW,302,0.0,0.0,87,0.00,,,0.00,0,WeatherCatV1.20B785,2013-09-30 09:24:00,
2013-09-30 05:25:00,43.2,39.6,30.07,WNW,302,0.0,0.0,87,0.00,,,0.00,0,WeatherCatV1.20B785,2013-09-30 09:25:00,
2013-09-30 05:27:00,43.2,39.6,30.08,WNW,302,0.0,0.0,87,0.00,,,0.00,0,WeatherCatV1.20B785,2013-09-30 09:27:00,
2013-09-30 05:29:00,43.2,39.6,30.07,WNW,302,0.0,0.0,87,0.00,,,0.00,0,WeatherCatV1.20B785,2013-09-30 09:29:00,
2013-09-30 05:30:00,43.2,39.6,30.07,WNW,302,0.0,0.0,87,0.00,,,0.00,0,WeatherCatV1.20B785,2013-09-30 09:30:00,
2013-09-30 05:31:00,43.2,39.6,30.07,WNW,302,0.0,0.0,87,0.00,,,0.00,0,WeatherCatV1.20B785,2013-09-30 09:31:00,
2013-09-30 05:32:00,43.2,39.6,30.07,WNW,302,0.0,0.0,87,0.00,,,0.00,0,WeatherCatV1.20B785,2013-09-30 09:32:00,
2013-09-30 05:33:00,43.2,39.6,30.07,WNW,302,0.0,0.0,87,0.00,,,0.00,0,WeatherCatV1.20B785,2013-09-30 09:33:00,
2013-09-30 05:34:00,43.2,39.6,30.07,WNW,302,0.0,0.0,87,0.00,,,0.00,0,WeatherCatV1.20B785,2013-09-30 09:34:00,
2013-09-30 05:36:00,43.2,39.6,30.07,WNW,302,0.0,0.0,87,0.00,,,0.00,0,WeatherCatV1.20B785,2013-09-30 09:36:00,
2013-09-30 05:38:00,43.3,39.7,30.07,WNW,302,0.0,0.0,87,0.00,,,0.00,0,WeatherCatV1.20B785,2013-09-30 09:38:00,
2013-09-30 05:40:00,43.3,39.7,30.07,WNW,302,0.0,0.0,87,0.00,,,0.00,0,WeatherCatV1.20B785,2013-09-30 09:40:00,
2013-09-30 05:42:00,43.3,39.7,30.07,WNW,302,0.0,0.0,87,0.00,,,0.00,0,WeatherCatV1.20B785,2013-09-30 09:42:00,
2013-09-30 05:43:00,43.3,39.7,30.07,WNW,302,0.0,0.0,87,0.00,,,0.00,0,WeatherCatV1.20B785,2013-09-30 09:43:00,
2013-09-30 05:45:00,43.3,39.7,30.07,WNW,302,0.0,0.0,87,0.00,,,0.00,0,WeatherCatV1.20B785,2013-09-30 09:45:00,
2013-09-30 05:48:00,43.2,39.6,30.08,WNW,302,0.0,0.0,87,0.00,,,0.00,0,WeatherCatV1.20B785,2013-09-30 09:48:00,
2013-09-30 05:49:00,43.2,39.6,30.08,WNW,302,0.0,0.0,87,0.00,,,0.00,0,WeatherCatV1.20B785,2013-09-30 09:49:00,
2013-09-30 05:50:00,43.2,39.6,30.08,WNW,302,0.0,0.0,87,0.00,,,0.00,0,WeatherCatV1.20B785,2013-09-30 09:50:00,
2013-09-30 05:53:00,43.2,39.6,30.08,WNW,302,0.0,0.0,87,0.00,,,0.00,0,WeatherCatV1.20B785,2013-09-30 09:53:00,
2013-09-30 05:54:00,43.2,39.6,30.08,WNW,302,0.0,0.0,87,0.00,,,0.00,0,WeatherCatV1.20B785,2013-09-30 09:54:00,
2013-09-30 05:55:00,43.2,39.6,30.08,WNW,302,0.0,0.0,87,0.00,,,0.00,0,WeatherCatV1.20B785,2013-09-30 09:55:00,
2013-09-30 05:58:00,43.2,39.6,30.08,WNW,302,0.0,0.0,87,0.00,,,0.00,0,WeatherCatV1.20B785,2013-09-30 09:58:00,
2013-09-30 05:59:00,43.2,39.6,30.08,WNW,302,0.0,0.0,87,0.00,,,0.00,0,WeatherCatV1.20B785,2013-09-30 09:59:00,
2013-09-30 06:00:00,43.2,39.6,30.08,WNW,302,0.0,0.0,87,0.00,,,0.00,0,WeatherCatV1.20B785,2013-09-30 10:00:00,
2013-09-30 06:01:00,43.2,39.6,30.08,WNW,302,0.0,0.0,87,0.00,,,0.00,0,WeatherCatV1.20B785,2013-09-30 10:01:00,
2013-09-30 06:03:00,43.2,39.6,30.08,WNW,302,0.0,0.0,87,0.00,,,0.00,0,WeatherCatV1.20B785,2013-09-30 10:03:00,
2013-09-30 06:04:00,43.1,39.5,30.07,WNW,302,0.0,0.0,87,0.00,,,0.00,0,WeatherCatV1.20B785,2013-09-30 10:04:00,
2013-09-30 06:05:00,43.1,39.5,30.08,WNW,302,0.0,0.0,87,0.00,,,0.00,0,WeatherCatV1.20B785,2013-09-30 10:05:00,
2013-09-30 06:06:00,43.1,39.5,30.08,WNW,302,0.0,0.0,87,0.00,,,0.00,0,WeatherCatV1.20B785,2013-09-30 10:06:00,
2013-09-30 06:09:00,43.0,39.4,30.07,WNW,302,0.0,0.0,87,0.00,,,0.00,0,WeatherCatV1.20B785,2013-09-30 10:09:00,
2013-09-30 06:10:00,43.0,39.4,30.08,WNW,302,0.0,0.0,87,0.00,,,0.00,0,WeatherCatV1.20B785,2013-09-30 10:10:00,
2013-09-30 06:11:00,43.0,39.4,30.08,WNW,302,0.0,0.0,87,0.00,,,0.00,0,WeatherCatV1.20B785,2013-09-30 10:11:00,
2013-09-30 06:14:00,43.0,39.4,30.08,WNW,302,0.0,0.0,87,0.00,,,0.00,0,WeatherCatV1.20B785,2013-09-30 10:14:00,
2013-09-30 06:15:00,43.0,39.4,30.08,WNW,302,0.0,0.0,87,0.00,,,0.00,0,WeatherCatV1.20B785,2013-09-30 10:15:00,
2013-09-30 06:16:00,43.0,39.4,30.08,WNW,302,0.0,0.0,87,0.00,,,0.00,0,WeatherCatV1.20B785,2013-09-30 10:16:00,
2013-09-30 06:17:00,42.9,39.3,30.08,WNW,302,0.0,0.0,87,0.00,,,0.00,0,WeatherCatV1.20B785,2013-09-30 10:17:00,
2013-09-30 06:20:00,42.8,39.2,30.08,WNW,302,0.0,0.0,87,0.00,,,0.00,0,WeatherCatV1.20B785,2013-09-30 10:20:00,
2013-09-30 06:21:00,42.8,39.2,30.08,WNW,302,0.0,0.0,87,0.00,,,0.00,0,WeatherCatV1.20B785,2013-09-30 10:21:00,
2013-09-30 06:22:00,42.8,39.2,30.08,WNW,302,0.0,0.0,87,0.00,,,0.00,0,WeatherCatV1.20B785,2013-09-30 10:22:00,
2013-09-30 06:25:00,42.8,39.2,30.08,WNW,302,0.0,0.0,87,0.00,,,0.00,0,WeatherCatV1.20B785,2013-09-30 10:25:00,
2013-09-30 06:26:00,42.8,39.2,30.08,WNW,302,0.0,0.0,87,0.00,,,0.00,0,WeatherCatV1.20B785,2013-09-30 10:26:00,
2013-09-30 06:27:00,42.8,39.2,30.08,WNW,302,0.0,0.0,87,0.00,,,0.00,0,WeatherCatV1.20B785,2013-09-30 10:27:00,
2013-09-30 06:30:00,42.8,39.2,30.08,WNW,302,0.0,0.0,87,0.00,,,0.00,0,WeatherCatV1.20B785,2013-09-30 10:30:00,
2013-09-30 06:31:00,42.8,39.2,30.08,WNW,302,0.0,0.0,87,0.00,,,0.00,0,WeatherCatV1.20B785,2013-09-30 10:31:00,
2013-09-30 06:32:00,42.8,39.2,30.08,WNW,302,0.0,0.0,87,0.00,,,0.00,0,WeatherCatV1.20B785,2013-09-30 10:32:00,
2013-09-30 06:35:00,42.8,39.2,30.08,WNW,302,0.0,0.0,87,0.00,,,0.00,0,WeatherCatV1.20B785,2013-09-30 10:35:00,
2013-09-30 06:37:00,42.8,39.2,30.08,WNW,302,0.0,0.0,87,0.00,,,0.00,0,WeatherCatV1.20B785,2013-09-30 10:37:00,
2013-09-30 06:41:00,42.7,39.1,30.08,WNW,302,0.0,0.0,87,0.00,,,0.00,0,WeatherCatV1.20B785,2013-09-30 10:41:00,
2013-09-30 06:42:00,42.7,39.1,30.08,WNW,302,0.0,0.0,87,0.00,,,0.00,0,WeatherCatV1.20B785,2013-09-30 10:42:00,
2013-09-30 06:43:00,42.7,39.1,30.08,WNW,302,0.0,0.0,87,0.00,,,0.00,0,WeatherCatV1.20B785,2013-09-30 10:43:00,
2013-09-30 06:46:00,42.7,39.1,30.08,WNW,302,0.0,0.0,87,0.00,,,0.00,0,WeatherCatV1.20B785,2013-09-30 10:46:00,
2013-09-30 06:47:00,42.7,39.1,30.08,WNW,302,0.0,0.0,87,0.00,,,0.00,0,WeatherCatV1.20B785,2013-09-30 10:47:00,
2013-09-30 06:48:00,42.7,39.1,30.08,WNW,302,0.0,0.0,87,0.00,,,0.00,0,WeatherCatV1.20B785,2013-09-30 10:48:00,
2013-09-30 06:49:00,42.7,39.1,30.08,WNW,302,0.0,0.0,87,0.00,,,0.00,0,WeatherCatV1.20B785,2013-09-30 10:49:00,
2013-09-30 06:51:00,42.6,39.0,30.08,WNW,302,0.0,0.0,87,0.00,,,0.00,0,WeatherCatV1.20B785,2013-09-30 10:51:00,
2013-09-30 06:52:00,42.6,39.0,30.08,WNW,302,0.0,0.0,87,0.00,,,0.00,0,WeatherCatV1.20B785,2013-09-30 10:52:00,
2013-09-30 06:53:00,42.6,39.0,30.08,WNW,302,0.0,0.0,87,0.00,,,0.00,0,WeatherCatV1.20B785,2013-09-30 10:53:00,
2013-09-30 06:55:00,42.6,39.0,30.08,WNW,302,0.0,0.0,87,0.00,,,0.00,0,WeatherCatV1.20B785,2013-09-30 10:55:00,
2013-09-30 06:57:00,42.5,38.9,30.08,WNW,302,0.0,0.0,87,0.00,,,0.00,0,WeatherCatV1.20B785,2013-09-30 10:57:00,
2013-09-30 06:58:00,42.4,38.8,30.09,WNW,302,0.0,0.0,87,0.00,,,0.00,0,WeatherCatV1.20B785,2013-09-30 10:58:00,
2013-09-30 07:00:00,42.4,38.8,30.09,WNW,302,0.0,0.0,87,0.00,,,0.00,0,WeatherCatV1.20B785,2013-09-30 11:00:00,
2013-09-30 07:02:00,42.3,38.7,30.09,WNW,302,0.0,0.0,87,0.00,,,0.00,0,WeatherCatV1.20B785,2013-09-30 11:02:00,
2013-09-30 07:03:00,42.3,38.7,30.09,WNW,302,0.0,0.0,87,0.00,,,0.00,0,WeatherCatV1.20B785,2013-09-30 11:03:00,
2013-09-30 07:05:00,42.2,38.6,30.09,WNW,302,0.0,0.0,87,0.00,,,0.00,0,WeatherCatV1.20B785,2013-09-30 11:05:00,
2013-09-30 07:07:00,42.3,38.7,30.09,WNW,302,0.0,0.0,87,0.00,,,0.00,0,WeatherCatV1.20B785,2013-09-30 11:07:00,
2013-09-30 07:08:00,42.2,38.6,30.09,WNW,302,0.0,0.0,87,0.00,,,0.00,0,WeatherCatV1.20B785,2013-09-30 11:08:00,
2013-09-30 07:10:00,42.2,38.6,30.09,WNW,302,0.0,0.0,87,0.00,,,0.00,5,WeatherCatV1.20B785,2013-09-30 11:10:00,
2013-09-30 07:11:00,42.2,38.6,30.09,WNW,302,0.0,0.0,87,0.00,,,0.00,5,WeatherCatV1.20B785,2013-09-30 11:11:00,
2013-09-30 07:12:00,42.2,38.6,30.09,WNW,302,0.0,0.0,87,0.00,,,0.00,5,WeatherCatV1.20B785,2013-09-30 11:12:00,
2013-09-30 07:13:00,42.2,38.6,30.09,WNW,302,0.0,0.0,87,0.00,,,0.00,5,WeatherCatV1.20B785,2013-09-30 11:13:00,
2013-09-30 07:16:00,42.2,38.6,30.09,WNW,302,0.0,0.0,87,0.00,,,0.00,7,WeatherCatV1.20B785,2013-09-30 11:16:00,
2013-09-30 07:17:00,42.1,38.5,30.09,WNW,302,0.0,0.0,87,0.00,,,0.00,7,WeatherCatV1.20B785,2013-09-30 11:17:00,
2013-09-30 07:18:00,42.1,38.5,30.09,WNW,302,0.0,0.0,87,0.00,,,0.00,7,WeatherCatV1.20B785,2013-09-30 11:18:00,
2013-09-30 07:19:00,42.1,38.5,30.09,WNW,302,0.0,0.0,87,0.00,,,0.00,7,WeatherCatV1.20B785,2013-09-30 11:19:00,
2013-09-30 07:22:00,42.1,38.5,30.09,WNW,302,0.0,0.0,87,0.00,,,0.00,9,WeatherCatV1.20B785,2013-09-30 11:22:00,
2013-09-30 07:23:00,42.1,38.5,30.09,WNW,302,0.0,0.0,87,0.00,,,0.00,9,WeatherCatV1.20B785,2013-09-30 11:23:00,
2013-09-30 07:24:00,42.1,38.5,30.09,WNW,302,0.0,0.0,87,0.00,,,0.00,11,WeatherCatV1.20B785,2013-09-30 11:24:00,
2013-09-30 07:27:00,42.1,38.5,30.09,WNW,302,0.0,0.0,87,0.00,,,0.00,14,WeatherCatV1.20B785,2013-09-30 11:27:00,
2013-09-30 07:28:00,42.0,38.4,30.09,WNW,302,0.0,0.0,87,0.00,,,0.00,14,WeatherCatV1.20B785,2013-09-30 11:28:00,
2013-09-30 07:29:00,42.1,38.5,30.09,WNW,302,0.0,0.0,87,0.00,,,0.00,18,WeatherCatV1.20B785,2013-09-30 11:29:00,
2013-09-30 07:33:00,42.1,38.5,30.09,WNW,302,0.0,0.0,87,0.00,,,0.00,25,WeatherCatV1.20B785,2013-09-30 11:33:00,
2013-09-30 07:34:00,42.2,38.6,30.09,WNW,302,0.0,0.0,87,0.00,,,0.00,25,WeatherCatV1.20B785,2013-09-30 11:34:00,
2013-09-30 07:35:00,42.2,38.6,30.09,WNW,302,0.0,0.0,87,0.00,,,0.00,26,WeatherCatV1.20B785,2013-09-30 11:35:00,
2013-09-30 07:38:00,42.3,38.7,30.09,WNW,302,0.0,0.0,87,0.00,,,0.00,21,WeatherCatV1.20B785,2013-09-30 11:38:00,
2013-09-30 07:40:00,42.4,38.8,30.09,WNW,302,0.0,0.0,87,0.00,,,0.00,23,WeatherCatV1.20B785,2013-09-30 11:40:00,
2013-09-30 07:43:00,42.5,38.9,30.09,WNW,302,0.0,0.0,87,0.00,,,0.00,46,WeatherCatV1.20B785,2013-09-30 11:43:00,
2013-09-30 07:44:00,42.5,38.9,30.09,WNW,302,0.0,0.0,87,0.00,,,0.00,47,WeatherCatV1.20B785,2013-09-30 11:44:00,
2013-09-30 07:45:00,42.6,39.0,30.08,WNW,302,0.0,0.0,87,0.00,,,0.00,53,WeatherCatV1.20B785,2013-09-30 11:45:00,
2013-09-30 07:46:00,42.7,39.1,30.09,WNW,302,0.0,0.0,87,0.00,,,0.00,53,WeatherCatV1.20B785,2013-09-30 11:46:00,
2013-09-30 07:49:00,42.9,39.3,30.09,WNW,302,0.0,0.0,87,0.00,,,0.00,54,WeatherCatV1.20B785,2013-09-30 11:49:00,
2013-09-30 07:50:00,43.0,39.4,30.09,WNW,302,0.0,0.0,87,0.00,,,0.00,60,WeatherCatV1.20B785,2013-09-30 11:50:00,
2013-09-30 07:51:00,43.2,39.6,30.09,WNW,302,0.0,0.0,87,0.00,,,0.00,62,WeatherCatV1.20B785,2013-09-30 11:51:00,
2013-09-30 07:54:00,43.4,39.8,30.09,WNW,302,0.0,0.0,87,0.00,,,0.00,83,WeatherCatV1.20B785,2013-09-30 11:54:00,
2013-09-30 07:55:00,43.3,39.7,30.09,WNW,302,0.0,0.0,87,0.00,,,0.00,84,WeatherCatV1.20B785,2013-09-30 11:55:00,
2013-09-30 07:56:00,43.4,39.8,30.09,WNW,302,0.0,0.0,87,0.00,,,0.00,86,WeatherCatV1.20B785,2013-09-30 11:56:00,
2013-09-30 07:57:00,43.6,40.0,30.09,WNW,302,0.0,0.0,87,0.00,,,0.00,86,WeatherCatV1.20B785,2013-09-30 11:57:00,
2013-09-30 08:00:00,44.0,40.4,30.09,WNW,302,0.0,0.0,87,0.00,,,0.00,97,WeatherCatV1.20B785,2013-09-30 12:00:00,
2013-09-30 08:01:00,44.2,40.6,30.09,WNW,302,0.0,0.0,87,0.00,,,0.00,98,WeatherCatV1.20B785,2013-09-30 12:01:00,
2013-09-30 08:03:00,44.5,40.9,30.09,WNW,302,0.0,0.0,87,0.00,,,0.00,100,WeatherCatV1.20B785,2013-09-30 12:03:00,
2013-09-30 08:05:00,44.6,41.0,30.09,WNW,302,0.0,0.0,87,0.00,,,0.00,100,WeatherCatV1.20B785,2013-09-30 12:05:00,
2013-09-30 08:06:00,44.6,41.0,30.09,WNW,302,0.0,0.0,87,0.00,,,0.00,104,WeatherCatV1.20B785,2013-09-30 12:06:00,
2013-09-30 08:08:00,44.7,41.1,30.09,WNW,302,0.0,0.0,87,0.00,,,0.00,105,WeatherCatV1.20B785,2013-09-30 12:08:00,
2013-09-30 08:10:00,44.8,41.2,30.09,WNW,302,0.0,0.0,87,0.00,,,0.00,113,WeatherCatV1.20B785,2013-09-30 12:10:00,
2013-09-30 08:12:00,44.9,41.3,30.09,WNW,302,0.0,0.0,87,0.00,,,0.00,134,WeatherCatV1.20B785,2013-09-30 12:12:00,
2013-09-30 08:15:00,45.2,41.3,30.09,WNW,302,0.0,0.0,86,0.00,,,0.00,116,WeatherCatV1.20B785,2013-09-30 12:15:00,
2013-09-30 08:16:00,45.3,41.4,30.09,WNW,302,0.0,0.0,86,0.00,,,0.00,90,WeatherCatV1.20B785,2013-09-30 12:16:00,
2013-09-30 08:17:00,45.4,41.5,30.09,WNW,302,0.0,0.0,86,0.00,,,0.00,102,WeatherCatV1.20B785,2013-09-30 12:17:00,
2013-09-30 08:18:00,45.4,41.5,30.09,WNW,302,0.0,0.0,86,0.00,,,0.00,114,WeatherCatV1.20B785,2013-09-30 12:18:00,
2013-09-30 08:20:00,45.6,42.0,30.09,WNW,288,1.0,2.0,87,0.00,,,0.00,158,WeatherCatV1.20B785,2013-09-30 12:20:00,
2013-09-30 08:21:00,45.6,42.0,30.09,WNW,288,0.0,2.0,87,0.00,,,0.00,156,WeatherCatV1.20B785,2013-09-30 12:21:00,
2013-09-30 08:22:00,45.7,42.1,30.10,WNW,288,1.0,2.0,87,0.00,,,0.00,163,WeatherCatV1.20B785,2013-09-30 12:22:00,
2013-09-30 08:23:00,45.8,41.8,30.10,WNW,288,0.0,1.0,86,0.00,,,0.00,172,WeatherCatV1.20B785,2013-09-30 12:23:00,
2013-09-30 08:27:00,46.2,42.2,30.10,WNW,288,0.0,0.0,86,0.00,,,0.00,188,WeatherCatV1.20B785,2013-09-30 12:27:00,
2013-09-30 08:28:00,46.4,42.4,30.10,WNW,288,0.0,1.0,86,0.00,,,0.00,193,WeatherCatV1.20B785,2013-09-30 12:28:00,
2013-09-30 08:32:00,46.9,42.9,30.10,WNW,288,0.0,0.0,86,0.00,,,0.00,190,WeatherCatV1.20B785,2013-09-30 12:32:00,
2013-09-30 08:33:00,47.0,43.0,30.10,WNW,288,0.0,0.0,86,0.00,,,0.00,206,WeatherCatV1.20B785,2013-09-30 12:33:00,
2013-09-30 08:34:00,47.3,43.3,30.10,WNW,288,0.0,0.0,86,0.00,,,0.00,209,WeatherCatV1.20B785,2013-09-30 12:34:00,
2013-09-30 08:37:00,47.6,43.6,30.10,WNW,288,0.0,1.0,86,0.00,,,0.00,216,WeatherCatV1.20B785,2013-09-30 12:37:00,
2013-09-30 08:38:00,47.7,43.7,30.10,WNW,288,0.0,1.0,86,0.00,,,0.00,213,WeatherCatV1.20B785,2013-09-30 12:38:00,
2013-09-30 08:39:00,47.9,43.9,30.10,WNW,288,0.0,0.0,86,0.00,,,0.00,109,WeatherCatV1.20B785,2013-09-30 12:39:00,
2013-09-30 08:42:00,48.2,44.2,30.10,WNW,288,0.0,0.0,86,0.00,,,0.00,54,WeatherCatV1.20B785,2013-09-30 12:42:00,
2013-09-30 08:43:00,48.2,44.2,30.10,WNW,288,0.0,0.0,86,0.00,,,0.00,54,WeatherCatV1.20B785,2013-09-30 12:43:00,
2013-09-30 08:44:00,48.4,44.7,30.10,WNW,288,0.0,0.0,87,0.00,,,0.00,63,WeatherCatV1.20B785,2013-09-30 12:44:00,
2013-09-30 08:47:00,48.7,45.0,30.10,WNW,288,0.0,1.0,87,0.00,,,0.00,153,WeatherCatV1.20B785,2013-09-30 12:47:00,
2013-09-30 08:48:00,48.7,45.0,30.10,WNW,288,0.0,0.0,87,0.00,,,0.00,153,WeatherCatV1.20B785,2013-09-30 12:48:00,
2013-09-30 08:49:00,48.8,45.4,30.10,WNW,288,0.0,1.0,88,0.00,,,0.00,84,WeatherCatV1.20B785,2013-09-30 12:49:00,
2013-09-30 08:50:00,48.9,45.5,30.10,WNW,303,0.0,1.0,88,0.00,,,0.00,54,WeatherCatV1.20B785,2013-09-30 12:50:00,
2013-09-30 08:53:00,49.0,45.6,30.10,WNW,303,0.0,1.0,88,0.00,,,0.00,121,WeatherCatV1.20B785,2013-09-30 12:53:00,
2013-09-30 08:55:00,49.1,46.0,30.10,WNW,303,0.0,1.0,89,0.00,,,0.00,58,WeatherCatV1.20B785,2013-09-30 12:55:00,
2013-09-30 08:56:00,49.2,46.1,30.10,WNW,303,0.0,0.0,89,0.00,,,0.00,70,WeatherCatV1.20B785,2013-09-30 12:56:00,
2013-09-30 08:58:00,49.3,46.2,30.10,WNW,303,0.0,0.0,89,0.00,,,0.00,139,WeatherCatV1.20B785,2013-09-30 12:58:00,
2013-09-30 09:00:00,49.4,46.3,30.10,WNW,303,0.0,0.0,89,0.00,,,0.00,111,WeatherCatV1.20B785,2013-09-30 13:00:00,
2013-09-30 09:01:00,49.5,46.4,30.10,West,273,1.0,2.0,89,0.00,,,0.00,144,WeatherCatV1.20B785,2013-09-30 13:01:00,
2013-09-30 09:02:00,49.5,46.4,30.10,West,273,0.0,2.0,89,0.00,,,0.00,132,WeatherCatV1.20B785,2013-09-30 13:02:00,
2013-09-30 09:03:00,49.6,46.5,30.10,West,273,0.0,1.0,89,0.00,,,0.00,72,WeatherCatV1.20B785,2013-09-30 13:03:00,
2013-09-30 09:06:00,49.8,46.7,30.10,West,277,0.0,1.0,89,0.00,,,0.00,60,WeatherCatV1.20B785,2013-09-30 13:06:00,
2013-09-30 09:07:00,49.9,46.8,30.10,West,277,0.0,1.0,89,0.00,,,0.00,86,WeatherCatV1.20B785,2013-09-30 13:07:00,
2013-09-30 09:09:00,50.2,47.1,30.10,West,273,1.0,2.0,89,0.00,,,0.00,141,WeatherCatV1.20B785,2013-09-30 13:09:00,
2013-09-30 09:11:00,50.3,47.2,30.10,West,273,0.0,2.0,89,0.00,,,0.00,102,WeatherCatV1.20B785,2013-09-30 13:11:00,
2013-09-30 09:12:00,50.4,47.3,30.10,West,273,0.0,0.0,89,0.00,,,0.00,58,WeatherCatV1.20B785,2013-09-30 13:12:00,
2013-09-30 09:15:00,50.5,47.4,30.10,West,273,0.0,0.0,89,0.00,,,0.00,74,WeatherCatV1.20B785,2013-09-30 13:15:00,
2013-09-30 09:16:00,50.6,47.5,30.10,West,273,0.0,1.0,89,0.00,,,0.00,62,WeatherCatV1.20B785,2013-09-30 13:16:00,
2013-09-30 09:17:00,50.7,47.6,30.10,West,273,0.0,1.0,89,0.00,,,0.00,54,WeatherCatV1.20B785,2013-09-30 13:17:00,
2013-09-30 09:18:00,50.8,47.7,30.10,West,273,0.0,1.0,89,0.00,,,0.00,54,WeatherCatV1.20B785,2013-09-30 13:18:00,
2013-09-30 09:21:00,51.0,47.9,30.10,West,275,0.0,2.0,89,0.00,,,0.00,54,WeatherCatV1.20B785,2013-09-30 13:21:00,
2013-09-30 09:22:00,51.2,48.1,30.10,West,275,0.0,1.0,89,0.00,,,0.00,54,WeatherCatV1.20B785,2013-09-30 13:22:00,
2013-09-30 09:23:00,51.2,48.1,30.10,West,275,1.0,1.0,89,0.00,,,0.00,54,WeatherCatV1.20B785,2013-09-30 13:23:00,
2013-09-30 09:26:00,51.4,48.3,30.10,West,266,1.0,2.0,89,0.00,,,0.00,54,WeatherCatV1.20B785,2013-09-30 13:26:00,
2013-09-30 09:28:00,51.6,48.5,30.10,WNW,289,1.0,2.0,89,0.00,,,0.00,54,WeatherCatV1.20B785,2013-09-30 13:28:00,
2013-09-30 09:29:00,51.7,48.6,30.10,WNW,288,0.0,2.0,89,0.00,,,0.00,54,WeatherCatV1.20B785,2013-09-30 13:29:00,
2013-09-30 09:31:00,51.9,48.8,30.10,WNW,288,0.0,1.0,89,0.00,,,0.00,54,WeatherCatV1.20B785,2013-09-30 13:31:00,
2013-09-30 09:32:00,52.0,48.9,30.10,WNW,288,1.0,1.0,89,0.00,,,0.00,54,WeatherCatV1.20B785,2013-09-30 13:32:00,
2013-09-30 09:33:00,52.1,49.0,30.10,WNW,282,1.0,2.0,89,0.00,,,0.00,54,WeatherCatV1.20B785,2013-09-30 13:33:00,
2013-09-30 09:34:00,52.1,49.0,30.10,WNW,282,0.0,2.0,89,0.00,,,0.00,54,WeatherCatV1.20B785,2013-09-30 13:34:00,
2013-09-30 09:36:00,52.4,49.2,30.10,West,277,1.0,2.0,89,0.00,,,0.00,54,WeatherCatV1.20B785,2013-09-30 13:36:00,
2013-09-30 09:37:00,52.5,49.3,30.10,West,276,0.0,2.0,89,0.00,,,0.00,54,WeatherCatV1.20B785,2013-09-30 13:37:00,
2013-09-30 09:38:00,52.6,49.5,30.10,West,277,1.0,1.0,89,0.00,,,0.00,54,WeatherCatV1.20B785,2013-09-30 13:38:00,
2013-09-30 09:39:00,52.8,49.7,30.10,West,277,0.0,2.0,89,0.00,,,0.00,88,WeatherCatV1.20B785,2013-09-30 13:39:00,
2013-09-30 09:40:00,52.8,49.7,30.10,West,277,0.0,2.0,89,0.00,,,0.00,158,WeatherCatV1.20B785,2013-09-30 13:40:00,
2013-09-30 09:42:00,53.0,49.8,30.10,West,277,0.0,1.0,89,0.00,,,0.00,116,WeatherCatV1.20B785,2013-09-30 13:42:00,
2013-09-30 09:44:00,53.2,50.0,30.10,West,277,1.0,1.0,89,0.00,,,0.00,60,WeatherCatV1.20B785,2013-09-30 13:44:00,
2013-09-30 09:46:00,53.3,50.1,30.10,West,277,0.0,1.0,89,0.00,,,0.00,54,WeatherCatV1.20B785,2013-09-30 13:46:00,
2013-09-30 09:47:00,53.5,50.3,30.10,West,281,1.0,1.0,89,0.00,,,0.00,65,WeatherCatV1.20B785,2013-09-30 13:47:00,
2013-09-30 09:48:00,53.7,50.5,30.09,WSW,258,2.0,2.0,89,0.00,,,0.00,56,WeatherCatV1.20B785,2013-09-30 13:48:00,
2013-09-30 09:49:00,53.8,50.6,30.09,WNW,283,1.0,2.0,89,0.00,,,0.00,56,WeatherCatV1.20B785,2013-09-30 13:49:00,
2013-09-30 09:50:00,53.9,50.7,30.10,WNW,283,0.0,2.0,89,0.00,,,0.00,54,WeatherCatV1.20B785,2013-09-30 13:50:00,
2013-09-30 09:51:00,54.1,50.9,30.10,WNW,282,0.0,2.0,89,0.00,,,0.00,56,WeatherCatV1.20B785,2013-09-30 13:51:00,
2013-09-30 09:53:00,54.3,50.8,30.10,West,279,0.0,1.0,88,0.00,,,0.00,56,WeatherCatV1.20B785,2013-09-30 13:53:00,
2013-09-30 09:54:00,54.5,51.0,30.09,SSW,198,0.0,1.0,88,0.00,,,0.00,56,WeatherCatV1.20B785,2013-09-30 13:54:00,
2013-09-30 09:56:00,54.9,51.4,30.10,ESE,105,1.0,1.0,88,0.00,,,0.00,56,WeatherCatV1.20B785,2013-09-30 13:56:00,
2013-09-30 09:58:00,55.5,51.7,30.10,ESE,105,0.0,1.0,87,0.00,,,0.00,56,WeatherCatV1.20B785,2013-09-30 13:58:00,
2013-09-30 09:59:00,55.7,51.9,30.09,East,85,2.0,2.0,87,0.00,,,0.00,56,WeatherCatV1.20B785,2013-09-30 13:59:00,
2013-09-30 10:01:00,56.0,52.2,30.09,East,85,0.0,1.0,87,0.00,,,0.00,91,WeatherCatV1.20B785,2013-09-30 14:01:00,
2013-09-30 10:02:00,56.1,52.3,30.09,East,85,0.0,0.0,87,0.00,,,0.00,56,WeatherCatV1.20B785,2013-09-30 14:02:00,
2013-09-30 10:03:00,56.3,52.5,30.09,East,85,0.0,0.0,87,0.00,,,0.00,56,WeatherCatV1.20B785,2013-09-30 14:03:00,
2013-09-30 10:04:00,56.4,52.6,30.09,East,85,0.0,1.0,87,0.00,,,0.00,56,WeatherCatV1.20B785,2013-09-30 14:04:00,
2013-09-30 10:06:00,56.7,52.6,30.09,East,83,1.0,1.0,86,0.00,,,0.00,56,WeatherCatV1.20B785,2013-09-30 14:06:00,
2013-09-30 10:07:00,56.8,53.0,30.09,East,83,0.0,1.0,87,0.00,,,0.00,56,WeatherCatV1.20B785,2013-09-30 14:07:00,
2013-09-30 10:08:00,57.0,53.2,30.09,NNE,30,0.0,1.0,87,0.00,,,0.00,56,WeatherCatV1.20B785,2013-09-30 14:08:00,
2013-09-30 10:09:00,57.1,52.6,30.09,NNW,329,0.0,1.0,85,0.00,,,0.00,58,WeatherCatV1.20B785,2013-09-30 14:09:00,
2013-09-30 10:10:00,57.2,52.7,30.09,NNW,329,0.0,1.0,85,0.00,,,0.00,58,WeatherCatV1.20B785,2013-09-30 14:10:00,
2013-09-30 10:12:00,57.4,53.2,30.09,NNE,17,0.0,1.0,86,0.00,,,0.00,58,WeatherCatV1.20B785,2013-09-30 14:12:00,
2013-09-30 10:14:00,57.7,52.9,30.09,SSE,152,0.0,1.0,84,0.00,,,0.00,58,WeatherCatV1.20B785,2013-09-30 14:14:00,
2013-09-30 10:15:00,57.9,53.1,30.09,SSE,150,0.0,1.0,84,0.00,,,0.00,58,WeatherCatV1.20B785,2013-09-30 14:15:00,
2013-09-30 10:17:00,58.2,53.4,30.09,SSE,154,0.0,2.0,84,0.00,,,0.00,63,WeatherCatV1.20B785,2013-09-30 14:17:00,
2013-09-30 10:18:00,58.3,53.5,30.09,ESE,116,1.0,2.0,84,0.00,,,0.00,62,WeatherCatV1.20B785,2013-09-30 14:18:00,
2013-09-30 10:19:00,58.5,53.3,30.09,NE,45,2.0,3.0,83,0.00,,,0.00,62,WeatherCatV1.20B785,2013-09-30 14:19:00,
2013-09-30 10:21:00,58.9,54.1,30.09,WSW,255,0.0,1.0,84,0.00,,,0.00,67,WeatherCatV1.20B785,2013-09-30 14:21:00,
2013-09-30 10:23:00,59.1,53.6,30.09,WSW,250,0.0,2.0,82,0.00,,,0.00,69,WeatherCatV1.20B785,2013-09-30 14:23:00,
2013-09-30 10:24:00,59.2,53.7,30.09,South,183,1.0,1.0,82,0.00,,,0.00,74,WeatherCatV1.20B785,2013-09-30 14:24:00,
2013-09-30 10:25:00,59.4,53.9,30.09,SE,131,1.0,1.0,82,0.00,,,0.00,60,WeatherCatV1.20B785,2013-09-30 14:25:00,
2013-09-30 10:27:00,59.6,53.8,30.09,WNW,283,1.0,2.0,81,0.00,,,0.00,67,WeatherCatV1.20B785,2013-09-30 14:27:00,
2013-09-30 10:28:00,59.8,54.0,30.09,West,279,0.0,2.0,81,0.00,,,0.00,67,WeatherCatV1.20B785,2013-09-30 14:28:00,
2013-09-30 10:29:00,59.9,54.0,30.09,West,279,0.0,0.0,81,0.00,,,0.00,62,WeatherCatV1.20B785,2013-09-30 14:29:00,
2013-09-30 10:31:00,60.1,53.9,30.09,West,272,1.0,2.0,80,0.00,,,0.00,62,WeatherCatV1.20B785,2013-09-30 14:31:00,
2013-09-30 10:32:00,60.3,54.4,30.09,NW,308,3.0,3.0,81,0.00,,,0.00,65,WeatherCatV1.20B785,2013-09-30 14:32:00,
2013-09-30 10:33:00,60.4,54.2,30.09,SW,235,1.0,3.0,80,0.00,,,0.00,63,WeatherCatV1.20B785,2013-09-30 14:33:00,
2013-09-30 10:34:00,60.5,54.3,30.09,West,264,1.0,3.0,80,0.00,,,0.00,63,WeatherCatV1.20B785,2013-09-30 14:34:00,
2013-09-30 10:36:00,60.6,53.7,30.09,West,267,0.0,2.0,78,0.00,,,0.00,63,WeatherCatV1.20B785,2013-09-30 14:36:00,
2013-09-30 10:38:00,60.8,53.9,30.09,NW,308,0.0,2.0,78,0.00,,,0.00,63,WeatherCatV1.20B785,2013-09-30 14:38:00,
2013-09-30 10:39:00,60.9,53.3,30.09,NE,50,0.0,2.0,76,0.00,,,0.00,72,WeatherCatV1.20B785,2013-09-30 14:39:00,
2013-09-30 10:41:00,61.2,53.9,30.09,WSW,250,0.0,1.0,77,0.00,,,0.00,120,WeatherCatV1.20B785,2013-09-30 14:41:00,
2013-09-30 10:43:00,61.4,54.1,30.09,West,271,0.0,2.0,77,0.00,,,0.00,102,WeatherCatV1.20B785,2013-09-30 14:43:00,
2013-09-30 10:44:00,61.4,53.8,30.09,NW,309,1.0,2.0,76,0.00,,,0.00,102,WeatherCatV1.20B785,2013-09-30 14:44:00,
2013-09-30 10:45:00,61.6,54.0,30.09,NNW,331,0.0,1.0,76,0.00,,,0.00,144,WeatherCatV1.20B785,2013-09-30 14:45:00,
2013-09-30 10:46:00,61.7,53.7,30.09,NNW,331,0.0,1.0,75,0.00,,,0.00,65,WeatherCatV1.20B785,2013-09-30 14:46:00,
2013-09-30 10:49:00,62.0,54.0,30.08,NW,326,0.0,1.0,75,0.00,,,0.00,183,WeatherCatV1.20B785,2013-09-30 14:49:00,
2013-09-30 10:51:00,62.2,53.4,30.09,NW,324,0.0,1.0,73,0.00,,,0.00,160,WeatherCatV1.20B785,2013-09-30 14:51:00,
2013-09-30 10:52:00,62.3,53.9,30.08,WSW,250,1.0,3.0,74,0.00,,,0.00,239,WeatherCatV1.20B785,2013-09-30 14:52:00,
2013-09-30 10:54:00,62.6,54.9,30.08,WNW,293,0.0,2.0,76,0.00,,,0.00,325,WeatherCatV1.20B785,2013-09-30 14:54:00,
2013-09-30 10:56:00,62.9,53.7,30.08,NE,45,2.0,2.0,72,0.00,,,0.00,619,WeatherCatV1.20B785,2013-09-30 14:56:00,
2013-09-30 10:58:00,63.2,55.1,30.08,South,189,0.0,2.0,75,0.00,,,0.00,622,WeatherCatV1.20B785,2013-09-30 14:58:00,
2013-09-30 11:00:00,63.5,54.7,30.08,West,276,4.0,5.0,73,0.00,,,0.00,626,WeatherCatV1.20B785,2013-09-30 15:00:00,
2013-09-30 11:01:00,63.8,55.0,30.08,WNW,289,0.0,5.0,73,0.00,,,0.00,631,WeatherCatV1.20B785,2013-09-30 15:01:00,
2013-09-30 11:03:00,64.0,54.8,30.08,WNW,282,1.0,3.0,72,0.00,,,0.00,633,WeatherCatV1.20B785,2013-09-30 15:03:00,
2013-09-30 11:05:00,64.3,55.1,30.08,East,83,2.0,2.0,72,0.00,,,0.00,638,WeatherCatV1.20B785,2013-09-30 15:05:00,
2013-09-30 11:06:00,64.5,54.5,30.08,NW,306,3.0,5.0,70,0.00,,,0.00,642,WeatherCatV1.20B785,2013-09-30 15:06:00,
2013-09-30 11:07:00,64.6,54.6,30.08,South,171,0.0,5.0,70,0.00,,,0.00,642,WeatherCatV1.20B785,2013-09-30 15:07:00,
2013-09-30 11:08:00,64.8,55.2,30.08,SSW,196,1.0,5.0,71,0.00,,,0.00,642,WeatherCatV1.20B785,2013-09-30 15:08:00,
2013-09-30 11:09:00,65.1,55.1,30.08,ESE,112,1.0,2.0,70,0.00,,,0.00,647,WeatherCatV1.20B785,2013-09-30 15:09:00,
2013-09-30 11:11:00,65.4,55.7,30.08,ESE,113,0.0,2.0,71,0.00,,,0.00,650,WeatherCatV1.20B785,2013-09-30 15:11:00,
2013-09-30 11:12:00,65.6,55.2,30.08,West,280,2.0,2.0,69,0.00,,,0.00,652,WeatherCatV1.20B785,2013-09-30 15:12:00,
2013-09-30 11:13:00,65.8,55.7,30.08,SW,236,0.0,2.0,70,0.00,,,0.00,654,WeatherCatV1.20B785,2013-09-30 15:13:00,
2013-09-30 11:15:00,66.1,55.2,30.08,West,263,2.0,2.0,68,0.00,,,0.00,661,WeatherCatV1.20B785,2013-09-30 15:15:00,
2013-09-30 11:16:00,66.3,55.8,30.08,WNW,291,2.0,2.0,69,0.00,,,0.00,661,WeatherCatV1.20B785,2013-09-30 15:16:00,
2013-09-30 11:17:00,66.3,55.0,30.08,WNW,300,2.0,2.0,67,0.00,,,0.00,663,WeatherCatV1.20B785,2013-09-30 15:17:00,
2013-09-30 11:19:00,66.7,55.0,30.08,NW,312,1.0,1.0,66,0.00,,,0.00,666,WeatherCatV1.20B785,2013-09-30 15:19:00,
2013-09-30 11:20:00,66.8,55.5,30.08,NW,312,1.0,1.0,67,0.00,,,0.00,668,WeatherCatV1.20B785,2013-09-30 15:20:00,
2013-09-30 11:22:00,67.0,55.7,30.08,NW,314,1.0,2.0,67,0.00,,,0.00,671,WeatherCatV1.20B785,2013-09-30 15:22:00,
2013-09-30 11:23:00,67.2,56.3,30.08,WSW,242,1.0,1.0,68,0.00,,,0.00,670,WeatherCatV1.20B785,2013-09-30 15:23:00,
2013-09-30 11:25:00,67.4,55.6,30.08,West,281,1.0,1.0,66,0.00,,,0.00,673,WeatherCatV1.20B785,2013-09-30 15:25:00,
2013-09-30 11:26:00,67.6,55.4,30.08,WNW,299,0.0,2.0,65,0.00,,,0.00,677,WeatherCatV1.20B785,2013-09-30 15:26:00,
2013-09-30 11:27:00,67.7,55.5,30.07,SSE,150,1.0,2.0,65,0.00,,,0.00,679,WeatherCatV1.20B785,2013-09-30 15:27:00,
2013-09-30 11:28:00,67.9,55.3,30.07,ENE,77,0.0,3.0,64,0.00,,,0.00,682,WeatherCatV1.20B785,2013-09-30 15:28:00,
2013-09-30 11:30:00,68.0,55.4,30.08,South,178,1.0,1.0,64,0.00,,,0.00,686,WeatherCatV1.20B785,2013-09-30 15:30:00,
2013-09-30 11:31:00,68.1,55.5,30.07,SE,140,2.0,2.0,64,0.00,,,0.00,686,WeatherCatV1.20B785,2013-09-30 15:31:00,
2013-09-30 11:32:00,68.2,55.1,30.07,SE,133,0.0,2.0,63,0.00,,,0.00,687,WeatherCatV1.20B785,2013-09-30 15:32:00,
2013-09-30 11:34:00,68.2,55.1,30.07,ENE,65,0.0,0.0,63,0.00,,,0.00,687,WeatherCatV1.20B785,2013-09-30 15:34:00,
2013-09-30 11:35:00,68.3,55.2,30.07,NNE,29,0.0,1.0,63,0.00,,,0.00,689,WeatherCatV1.20B785,2013-09-30 15:35:00,
2013-09-30 11:36:00,68.3,55.2,30.07,NNE,29,0.0,1.0,63,0.00,,,0.00,693,WeatherCatV1.20B785,2013-09-30 15:36:00,
2013-09-30 11:38:00,68.5,55.4,30.07,North,352,0.0,2.0,63,0.00,,,0.00,694,WeatherCatV1.20B785,2013-09-30 15:38:00,
2013-09-30 11:39:00,68.7,56.0,30.07,NW,308,1.0,1.0,64,0.00,,,0.00,694,WeatherCatV1.20B785,2013-09-30 15:39:00,
2013-09-30 11:41:00,69.0,55.4,30.07,ENE,76,0.0,1.0,62,0.00,,,0.00,700,WeatherCatV1.20B785,2013-09-30 15:41:00,
2013-09-30 11:43:00,69.1,55.1,30.07,WNW,299,1.0,2.0,61,0.00,,,0.00,703,WeatherCatV1.20B785,2013-09-30 15:43:00,
2013-09-30 11:44:00,69.3,56.2,30.07,NW,316,0.0,2.0,63,0.00,,,0.00,701,WeatherCatV1.20B785,2013-09-30 15:44:00,
2013-09-30 11:47:00,69.6,55.1,30.07,SSW,202,0.0,3.0,60,0.00,,,0.00,705,WeatherCatV1.20B785,2013-09-30 15:47:00,
2013-09-30 11:48:00,69.7,55.2,30.07,West,275,0.0,2.0,60,0.00,,,0.00,714,WeatherCatV1.20B785,2013-09-30 15:48:00,
2013-09-30 11:49:00,69.8,55.3,30.07,West,275,0.0,1.0,60,0.00,,,0.00,715,WeatherCatV1.20B785,2013-09-30 15:49:00,
2013-09-30 11:52:00,70.2,55.7,30.07,NNE,30,0.0,1.0,60,0.00,,,0.00,719,WeatherCatV1.20B785,2013-09-30 15:52:00,
2013-09-30 11:53:00,70.2,56.1,30.07,SW,225,2.0,2.0,61,0.00,,,0.00,719,WeatherCatV1.20B785,2013-09-30 15:53:00,
2013-09-30 11:55:00,70.5,55.5,30.07,NNE,12,0.0,1.0,59,0.00,,,0.00,724,WeatherCatV1.20B785,2013-09-30 15:55:00,
2013-09-30 11:58:00,70.7,55.2,30.07,East,98,0.0,0.0,58,0.00,,,0.00,724,WeatherCatV1.20B785,2013-09-30 15:58:00,
2013-09-30 11:59:00,70.8,55.3,30.07,ESE,107,0.0,1.0,58,0.00,,,0.00,724,WeatherCatV1.20B785,2013-09-30 15:59:00,
2013-09-30 12:00:00,71.0,55.0,30.07,SE,143,3.0,3.0,57,0.00,,,0.00,721,WeatherCatV1.20B785,2013-09-30 16:00:00,
2013-09-30 12:03:00,71.0,55.5,30.07,SSE,162,0.0,1.0,58,0.00,,,0.00,724,WeatherCatV1.20B785,2013-09-30 16:03:00,
2013-09-30 12:04:00,71.0,54.5,30.07,East,86,4.0,5.0,56,0.00,,,0.00,728,WeatherCatV1.20B785,2013-09-30 16:04:00,
2013-09-30 12:05:00,71.0,54.5,30.07,East,88,4.0,6.0,56,0.00,,,0.00,726,WeatherCatV1.20B785,2013-09-30 16:05:00,
2013-09-30 12:08:00,70.9,54.4,30.07,ESE,108,3.0,5.0,56,0.00,,,0.00,729,WeatherCatV1.20B785,2013-09-30 16:08:00,
2013-09-30 12:09:00,70.8,54.3,30.07,East,100,2.0,5.0,56,0.00,,,0.00,731,WeatherCatV1.20B785,2013-09-30 16:09:00,
2013-09-30 12:11:00,70.6,54.1,30.06,ENE,62,1.0,2.0,56,0.00,,,0.00,733,WeatherCatV1.20B785,2013-09-30 16:11:00,
2013-09-30 12:12:00,70.5,55.5,30.06,SE,127,1.0,1.0,59,0.00,,,0.00,733,WeatherCatV1.20B785,2013-09-30 16:12:00,
2013-09-30 12:13:00,70.6,55.1,30.06,East,98,3.0,3.0,58,0.00,,,0.00,733,WeatherCatV1.20B785,2013-09-30 16:13:00,
2013-09-30 12:14:00,70.6,55.1,30.06,East,88,1.0,4.0,58,0.00,,,0.00,735,WeatherCatV1.20B785,2013-09-30 16:14:00,
2013-09-30 12:15:00,70.7,55.2,30.06,NE,53,2.0,4.0,58,0.00,,,0.00,733,WeatherCatV1.20B785,2013-09-30 16:15:00,
2013-09-30 12:17:00,70.9,55.4,30.06,SSE,161,0.0,1.0,58,0.00,,,0.00,740,WeatherCatV1.20B785,2013-09-30 16:17:00,
2013-09-30 12:18:00,71.0,55.5,30.06,SE,129,1.0,1.0,58,0.00,,,0.00,738,WeatherCatV1.20B785,2013-09-30 16:18:00,
2013-09-30 12:19:00,71.0,55.5,30.06,ESE,116,0.0,1.0,58,0.00,,,0.00,742,WeatherCatV1.20B785,2013-09-30 16:19:00,
2013-09-30 12:20:00,71.2,55.7,30.06,SE,133,1.0,1.0,58,0.00,,,0.00,737,WeatherCatV1.20B785,2013-09-30 16:20:00,
2013-09-30 12:23:00,71.5,55.5,30.06,East,95,0.0,3.0,57,0.00,,,0.00,744,WeatherCatV1.20B785,2013-09-30 16:23:00,
2013-09-30 12:24:00,71.6,56.5,30.06,East,93,2.0,2.0,59,0.00,,,0.00,745,WeatherCatV1.20B785,2013-09-30 16:24:00,
2013-09-30 12:26:00,71.9,55.3,30.06,WSW,257,1.0,3.0,56,0.00,,,0.00,745,WeatherCatV1.20B785,2013-09-30 16:26:00,
2013-09-30 12:28:00,72.4,55.8,30.06,West,279,1.0,3.0,56,0.00,,,0.00,744,WeatherCatV1.20B785,2013-09-30 16:28:00,
2013-09-30 12:29:00,72.6,55.5,30.06,WNW,282,1.0,3.0,55,0.00,,,0.00,744,WeatherCatV1.20B785,2013-09-30 16:29:00,
2013-09-30 12:31:00,73.0,55.4,30.06,NW,306,1.0,3.0,54,0.00,,,0.00,745,WeatherCatV1.20B785,2013-09-30 16:31:00,
2013-09-30 12:33:00,73.3,55.1,30.05,West,275,1.0,4.0,53,0.00,,,0.00,747,WeatherCatV1.20B785,2013-09-30 16:33:00,
2013-09-30 12:34:00,73.5,55.3,30.05,North,358,0.0,4.0,53,0.00,,,0.00,747,WeatherCatV1.20B785,2013-09-30 16:34:00,
2013-09-30 12:35:00,73.5,55.3,30.05,East,81,1.0,4.0,53,0.00,,,0.00,747,WeatherCatV1.20B785,2013-09-30 16:35:00,
2013-09-30 12:36:00,73.6,55.4,30.05,WNW,286,1.0,3.0,53,0.00,,,0.00,745,WeatherCatV1.20B785,2013-09-30 16:36:00,
2013-09-30 12:39:00,73.8,56.1,30.06,West,277,1.0,4.0,54,0.00,,,0.00,745,WeatherCatV1.20B785,2013-09-30 16:39:00,
2013-09-30 12:40:00,73.9,56.2,30.06,West,277,1.0,3.0,54,0.00,,,0.00,745,WeatherCatV1.20B785,2013-09-30 16:40:00,
2013-09-30 12:41:00,74.0,55.8,30.05,NW,311,0.0,1.0,53,0.00,,,0.00,740,WeatherCatV1.20B785,2013-09-30 16:41:00,
2013-09-30 12:44:00,74.2,56.0,30.06,WSW,250,1.0,2.0,53,0.00,,,0.00,747,WeatherCatV1.20B785,2013-09-30 16:44:00,
2013-09-30 12:45:00,74.3,55.0,30.05,WSW,250,0.0,2.0,51,0.00,,,0.00,747,WeatherCatV1.20B785,2013-09-30 16:45:00,
2013-09-30 12:48:00,74.4,55.6,30.05,NW,314,1.0,2.0,52,0.00,,,0.00,751,WeatherCatV1.20B785,2013-09-30 16:48:00,
2013-09-30 12:49:00,74.4,56.1,30.05,NW,306,2.0,3.0,53,0.00,,,0.00,752,WeatherCatV1.20B785,2013-09-30 16:49:00,
2013-09-30 12:50:00,74.4,56.1,30.05,WNW,296,3.0,3.0,53,0.00,,,0.00,752,WeatherCatV1.20B785,2013-09-30 16:50:00,
2013-09-30 12:51:00,74.4,55.6,30.05,NW,308,0.0,2.0,52,0.00,,,0.00,752,WeatherCatV1.20B785,2013-09-30 16:51:00,
2013-09-30 12:53:00,74.6,55.8,30.05,WNW,287,1.0,1.0,52,0.00,,,0.00,752,WeatherCatV1.20B785,2013-09-30 16:53:00,
2013-09-30 12:54:00,74.7,55.3,30.05,WNW,298,0.0,1.0,51,0.00,,,0.00,751,WeatherCatV1.20B785,2013-09-30 16:54:00,
2013-09-30 12:55:00,74.8,55.4,30.05,WNW,298,0.0,1.0,51,0.00,,,0.00,751,WeatherCatV1.20B785,2013-09-30 16:55:00,
2013-09-30 12:56:00,74.9,56.1,30.05,East,84,0.0,1.0,52,0.00,,,0.00,754,WeatherCatV1.20B785,2013-09-30 16:56:00,
2013-09-30 12:57:00,74.9,55.5,30.05,East,98,1.0,2.0,51,0.00,,,0.00,754,WeatherCatV1.20B785,2013-09-30 16:57:00,
2013-09-30 12:58:00,74.8,55.4,30.05,ESE,106,2.0,3.0,51,0.00,,,0.00,752,WeatherCatV1.20B785,2013-09-30 16:58:00,
2013-09-30 12:59:00,74.7,55.9,30.05,SE,135,1.0,3.0,52,0.00,,,0.00,754,WeatherCatV1.20B785,2013-09-30 16:59:00,
2013-09-30 13:00:00,74.7,54.8,30.05,SE,141,0.0,3.0,50,0.00,,,0.00,754,WeatherCatV1.20B785,2013-09-30 17:00:00,
2013-09-30 13:01:00,74.6,54.7,30.05,SE,138,0.0,3.0,50,0.00,,,0.00,752,WeatherCatV1.20B785,2013-09-30 17:01:00,
2013-09-30 13:02:00,74.5,55.2,30.05,SSE,155,0.0,3.0,51,0.00,,,0.00,754,WeatherCatV1.20B785,2013-09-30 17:02:00,
2013-09-30 13:03:00,74.4,55.6,30.05,East,89,4.0,5.0,52,0.00,,,0.00,756,WeatherCatV1.20B785,2013-09-30 17:03:00,
2013-09-30 13:05:00,74.2,55.4,30.05,ESE,108,3.0,3.0,52,0.00,,,0.00,752,WeatherCatV1.20B785,2013-09-30 17:05:00,
2013-09-30 13:07:00,73.9,54.1,30.04,East,86,2.0,5.0,50,0.00,,,0.00,752,WeatherCatV1.20B785,2013-09-30 17:07:00,
2013-09-30 13:08:00,73.8,54.5,30.04,East,88,2.0,2.0,51,0.00,,,0.00,754,WeatherCatV1.20B785,2013-09-30 17:08:00,
2013-09-30 13:10:00,73.6,54.3,30.04,East,89,2.0,6.0,51,0.00,,,0.00,752,WeatherCatV1.20B785,2013-09-30 17:10:00,
2013-09-30 13:13:00,73.3,54.1,30.04,NE,50,3.0,5.0,51,0.00,,,0.00,752,WeatherCatV1.20B785,2013-09-30 17:13:00,
2013-09-30 13:15:00,73.3,54.1,30.04,ESE,108,2.0,3.0,51,0.00,,,0.00,751,WeatherCatV1.20B785,2013-09-30 17:15:00,
2013-09-30 13:16:00,73.3,54.1,30.04,ESE,108,2.0,2.0,51,0.00,,,0.00,751,WeatherCatV1.20B785,2013-09-30 17:16:00,
2013-09-30 13:18:00,73.2,54.5,30.04,NE,50,0.0,1.0,52,0.00,,,0.00,752,WeatherCatV1.20B785,2013-09-30 17:18:00,
2013-09-30 13:19:00,73.2,54.5,30.04,NE,50,0.0,1.0,52,0.00,,,0.00,752,WeatherCatV1.20B785,2013-09-30 17:19:00,
2013-09-30 13:21:00,73.3,54.6,30.04,ESE,103,1.0,2.0,52,0.00,,,0.00,752,WeatherCatV1.20B785,2013-09-30 17:21:00,
2013-09-30 13:23:00,73.4,54.7,30.04,East,86,2.0,2.0,52,0.00,,,0.00,749,WeatherCatV1.20B785,2013-09-30 17:23:00,
2013-09-30 13:24:00,73.4,53.6,30.04,East,88,0.0,2.0,50,0.00,,,0.00,749,WeatherCatV1.20B785,2013-09-30 17:24:00,
2013-09-30 13:25:00,73.5,53.2,30.04,East,88,0.0,2.0,49,0.00,,,0.00,749,WeatherCatV1.20B785,2013-09-30 17:25:00,
2013-09-30 13:26:00,73.5,53.2,30.04,East,87,3.0,3.0,49,0.00,,,0.00,749,WeatherCatV1.20B785,2013-09-30 17:26:00,
2013-09-30 13:29:00,73.7,54.4,30.03,NE,46,4.0,4.0,51,0.00,,,0.00,749,WeatherCatV1.20B785,2013-09-30 17:29:00,
2013-09-30 13:30:00,73.7,53.3,30.03,ENE,65,4.0,5.0,49,0.00,,,0.00,631,WeatherCatV1.20B785,2013-09-30 17:30:00,
2013-09-30 13:31:00,73.7,53.3,30.03,NE,45,3.0,5.0,49,0.00,,,0.00,631,WeatherCatV1.20B785,2013-09-30 17:31:00,
2013-09-30 13:32:00,73.7,53.3,30.03,East,91,1.0,5.0,49,0.00,,,0.00,747,WeatherCatV1.20B785,2013-09-30 17:32:00,
2013-09-30 13:34:00,73.7,53.9,30.03,East,98,2.0,4.0,50,0.00,,,0.00,745,WeatherCatV1.20B785,2013-09-30 17:34:00,
2013-09-30 13:36:00,73.7,53.3,30.03,SE,133,0.0,1.0,49,0.00,,,0.00,744,WeatherCatV1.20B785,2013-09-30 17:36:00,
2013-09-30 13:38:00,74.1,54.2,30.03,WSW,252,0.0,3.0,50,0.00,,,0.00,740,WeatherCatV1.20B785,2013-09-30 17:38:00,
2013-09-30 13:39:00,74.1,53.7,30.03,WSW,250,0.0,3.0,49,0.00,,,0.00,740,WeatherCatV1.20B785,2013-09-30 17:39:00,
2013-09-30 13:40:00,74.3,53.9,30.03,SSE,165,2.0,2.0,49,0.00,,,0.00,742,WeatherCatV1.20B785,2013-09-30 17:40:00,
2013-09-30 13:41:00,74.4,53.4,30.03,SSE,165,1.0,3.0,48,0.00,,,0.00,740,WeatherCatV1.20B785,2013-09-30 17:41:00,
2013-09-30 13:43:00,74.4,54.0,30.03,ESE,119,1.0,2.0,49,0.00,,,0.00,742,WeatherCatV1.20B785,2013-09-30 17:43:00,
2013-09-30 13:44:00,74.4,54.0,30.02,ENE,78,2.0,2.0,49,0.00,,,0.00,742,WeatherCatV1.20B785,2013-09-30 17:44:00,
2013-09-30 13:45:00,74.4,54.0,30.02,ESE,106,0.0,1.0,49,0.00,,,0.00,737,WeatherCatV1.20B785,2013-09-30 17:45:00,
2013-09-30 13:46:00,74.4,52.8,30.02,East,96,2.0,4.0,47,0.00,,,0.00,735,WeatherCatV1.20B785,2013-09-30 17:46:00,
2013-09-30 13:47:00,74.4,52.8,30.02,East,100,1.0,4.0,47,0.00,,,0.00,703,WeatherCatV1.20B785,2013-09-30 17:47:00,
2013-09-30 13:49:00,74.5,52.3,30.02,SSE,150,2.0,3.0,46,0.00,,,0.00,703,WeatherCatV1.20B785,2013-09-30 17:49:00,
2013-09-30 13:50:00,74.6,53.0,30.02,NE,46,5.0,5.0,47,0.00,,,0.00,81,WeatherCatV1.20B785,2013-09-30 17:50:00,
2013-09-30 13:51:00,74.7,53.1,30.02,North,7,1.0,5.0,47,0.00,,,0.00,79,WeatherCatV1.20B785,2013-09-30 17:51:00,
2013-09-30 13:52:00,74.8,53.2,30.02,NNE,17,0.0,5.0,47,0.00,,,0.00,79,WeatherCatV1.20B785,2013-09-30 17:52:00,
2013-09-30 13:54:00,75.3,53.7,30.02,NE,39,4.0,5.0,47,0.00,,,0.00,121,WeatherCatV1.20B785,2013-09-30 17:54:00,
2013-09-30 13:56:00,75.4,52.6,30.02,NE,51,4.0,6.0,45,0.00,,,0.00,121,WeatherCatV1.20B785,2013-09-30 17:56:00,
2013-09-30 13:57:00,75.4,52.6,30.02,NNE,30,0.0,4.0,45,0.00,,,0.00,121,WeatherCatV1.20B785,2013-09-30 17:57:00,
2013-09-30 14:00:00,75.4,53.8,30.02,NE,56,0.0,3.0,47,0.00,,,0.00,722,WeatherCatV1.20B785,2013-09-30 18:00:00,
2013-09-30 14:01:00,75.5,53.2,30.02,ENE,67,1.0,2.0,46,0.00,,,0.00,722,WeatherCatV1.20B785,2013-09-30 18:01:00,
2013-09-30 14:03:00,75.4,53.8,30.02,ENE,59,3.0,4.0,47,0.00,,,0.00,722,WeatherCatV1.20B785,2013-09-30 18:03:00,
2013-09-30 14:05:00,75.4,54.3,30.02,East,96,5.0,5.0,48,0.00,,,0.00,466,WeatherCatV1.20B785,2013-09-30 18:05:00,
2013-09-30 14:06:00,75.3,52.5,30.01,East,87,4.0,5.0,45,0.00,,,0.00,77,WeatherCatV1.20B785,2013-09-30 18:06:00,
2013-09-30 14:08:00,75.2,53.0,30.01,NNE,29,6.0,7.0,46,0.00,,,0.00,86,WeatherCatV1.20B785,2013-09-30 18:08:00,
2013-09-30 14:10:00,75.1,53.5,30.01,NW,321,1.0,5.0,47,0.00,,,0.00,86,WeatherCatV1.20B785,2013-09-30 18:10:00,
2013-09-30 14:11:00,75.1,53.5,30.01,NNW,337,1.0,2.0,47,0.00,,,0.00,615,WeatherCatV1.20B785,2013-09-30 18:11:00,
2013-09-30 14:12:00,75.1,52.9,30.02,NW,307,2.0,3.0,46,0.00,,,0.00,615,WeatherCatV1.20B785,2013-09-30 18:12:00,
2013-09-30 14:13:00,75.2,53.0,30.02,NNW,328,1.0,3.0,46,0.00,,,0.00,244,WeatherCatV1.20B785,2013-09-30 18:13:00,
2013-09-30 14:15:00,75.4,53.2,30.01,East,86,1.0,3.0,46,0.00,,,0.00,712,WeatherCatV1.20B785,2013-09-30 18:15:00,
2013-09-30 14:16:00,75.5,53.2,30.01,East,97,1.0,3.0,46,0.00,,,0.00,717,WeatherCatV1.20B785,2013-09-30 18:16:00,
2013-09-30 14:17:00,75.5,52.7,30.01,East,98,2.0,4.0,45,0.00,,,0.00,712,WeatherCatV1.20B785,2013-09-30 18:17:00,
2013-09-30 14:18:00,75.7,54.0,30.01,East,81,2.0,3.0,47,0.00,,,0.00,610,WeatherCatV1.20B785,2013-09-30 18:18:00,
2013-09-30 14:20:00,75.9,53.6,30.01,NNE,25,2.0,4.0,46,0.00,,,0.00,610,WeatherCatV1.20B785,2013-09-30 18:20:00,
2013-09-30 14:21:00,75.9,53.0,30.01,ENE,58,3.0,5.0,45,0.00,,,0.00,281,WeatherCatV1.20B785,2013-09-30 18:21:00,
2013-09-30 14:22:00,75.9,53.0,30.01,NE,35,1.0,5.0,45,0.00,,,0.00,281,WeatherCatV1.20B785,2013-09-30 18:22:00,
2013-09-30 14:24:00,75.9,53.0,30.01,NW,316,0.0,3.0,45,0.00,,,0.00,707,WeatherCatV1.20B785,2013-09-30 18:24:00,
2013-09-30 14:25:00,76.0,53.7,30.01,ESE,107,2.0,3.0,46,0.00,,,0.00,712,WeatherCatV1.20B785,2013-09-30 18:25:00,
2013-09-30 14:27:00,76.0,53.1,30.01,East,92,2.0,3.0,45,0.00,,,0.00,705,WeatherCatV1.20B785,2013-09-30 18:27:00,
2013-09-30 14:30:00,75.8,52.9,30.01,ESE,106,3.0,6.0,45,0.00,,,0.00,694,WeatherCatV1.20B785,2013-09-30 18:30:00,
2013-09-30 14:31:00,75.7,52.8,30.00,East,100,3.0,6.0,45,0.00,,,0.00,696,WeatherCatV1.20B785,2013-09-30 18:31:00,
2013-09-30 14:32:00,75.5,53.2,30.00,East,99,3.0,7.0,46,0.00,,,0.00,694,WeatherCatV1.20B785,2013-09-30 18:32:00,
2013-09-30 14:33:00,75.4,53.2,30.00,ESE,110,3.0,7.0,46,0.00,,,0.00,689,WeatherCatV1.20B785,2013-09-30 18:33:00,
2013-09-30 14:35:00,75.2,53.6,30.00,SSE,163,1.0,5.0,47,0.00,,,0.00,687,WeatherCatV1.20B785,2013-09-30 18:35:00,
2013-09-30 14:36:00,75.2,53.6,30.00,SSE,154,0.0,2.0,47,0.00,,,0.00,686,WeatherCatV1.20B785,2013-09-30 18:36:00,
2013-09-30 14:37:00,75.2,53.6,30.00,ESE,120,0.0,1.0,47,0.00,,,0.00,682,WeatherCatV1.20B785,2013-09-30 18:37:00,
2013-09-30 14:38:00,75.2,53.6,30.00,ESE,106,0.0,1.0,47,0.00,,,0.00,682,WeatherCatV1.20B785,2013-09-30 18:38:00,
2013-09-30 14:41:00,75.5,53.8,30.00,ENE,57,2.0,2.0,47,0.00,,,0.00,107,WeatherCatV1.20B785,2013-09-30 18:41:00,
2013-09-30 14:42:00,75.6,54.5,30.00,East,94,2.0,3.0,48,0.00,,,0.00,107,WeatherCatV1.20B785,2013-09-30 18:42:00,
2013-09-30 14:43:00,75.7,54.6,30.00,ESE,102,2.0,2.0,48,0.00,,,0.00,466,WeatherCatV1.20B785,2013-09-30 18:43:00,
2013-09-30 14:46:00,75.9,54.2,30.00,NE,49,2.0,6.0,47,0.00,,,0.00,146,WeatherCatV1.20B785,2013-09-30 18:46:00,
2013-09-30 14:47:00,76.0,54.9,30.00,ENE,78,1.0,6.0,48,0.00,,,0.00,172,WeatherCatV1.20B785,2013-09-30 18:47:00,
2013-09-30 14:49:00,76.0,53.7,30.00,East,88,1.0,5.0,46,0.00,,,0.00,341,WeatherCatV1.20B785,2013-09-30 18:49:00,
2013-09-30 14:51:00,75.9,54.2,30.00,NE,53,3.0,4.0,47,0.00,,,0.00,601,WeatherCatV1.20B785,2013-09-30 18:51:00,
2013-09-30 14:52:00,76.0,53.7,30.00,East,80,2.0,4.0,46,0.00,,,0.00,601,WeatherCatV1.20B785,2013-09-30 18:52:00,
2013-09-30 14:54:00,75.7,53.4,29.99,ESE,106,1.0,3.0,46,0.00,,,0.00,652,WeatherCatV1.20B785,2013-09-30 18:54:00,
2013-09-30 14:57:00,75.6,53.9,29.99,ENE,72,2.0,3.0,47,0.00,,,0.00,650,WeatherCatV1.20B785,2013-09-30 18:57:00,
2013-09-30 14:58:00,75.6,54.5,29.99,ESE,104,5.0,5.0,48,0.00,,,0.00,649,WeatherCatV1.20B785,2013-09-30 18:58:00,
2013-09-30 14:59:00,75.7,54.0,29.99,ENE,76,1.0,5.0,47,0.00,,,0.00,589,WeatherCatV1.20B785,2013-09-30 18:59:00,
2013-09-30 15:02:00,75.8,54.1,29.99,East,88,3.0,6.0,47,0.00,,,0.00,79,WeatherCatV1.20B785,2013-09-30 19:02:00,
2013-09-30 15:03:00,75.8,54.1,29.99,East,89,4.0,5.0,47,0.00,,,0.00,72,WeatherCatV1.20B785,2013-09-30 19:03:00,
2013-09-30 15:05:00,75.8,54.1,29.99,East,85,3.0,5.0,47,0.00,,,0.00,70,WeatherCatV1.20B785,2013-09-30 19:05:00,
2013-09-30 15:06:00,75.8,53.5,29.99,East,94,3.0,3.0,46,0.00,,,0.00,70,WeatherCatV1.20B785,2013-09-30 19:06:00,
2013-09-30 15:08:00,75.7,54.0,29.99,ESE,107,1.0,7.0,47,0.00,,,0.00,84,WeatherCatV1.20B785,2013-09-30 19:08:00,
2013-09-30 15:10:00,75.7,54.6,29.99,East,100,3.0,3.0,48,0.00,,,0.00,619,WeatherCatV1.20B785,2013-09-30 19:10:00,
2013-09-30 15:11:00,75.7,54.6,29.99,East,86,4.0,5.0,48,0.00,,,0.00,612,WeatherCatV1.20B785,2013-09-30 19:11:00,
2013-09-30 15:13:00,75.8,54.7,29.99,NE,49,3.0,3.0,48,0.00,,,0.00,610,WeatherCatV1.20B785,2013-09-30 19:13:00,
2013-09-30 15:15:00,76.0,54.9,29.99,ESE,110,0.0,8.0,48,0.00,,,0.00,608,WeatherCatV1.20B785,2013-09-30 19:15:00,
2013-09-30 15:17:00,76.2,54.5,29.99,NE,37,0.0,4.0,47,0.00,,,0.00,603,WeatherCatV1.20B785,2013-09-30 19:17:00,
2013-09-30 15:18:00,76.3,54.6,29.99,NNE,29,3.0,5.0,47,0.00,,,0.00,596,WeatherCatV1.20B785,2013-09-30 19:18:00,
2013-09-30 15:20:00,76.5,54.8,29.99,NE,40,1.0,3.0,47,0.00,,,0.00,594,WeatherCatV1.20B785,2013-09-30 19:20:00,
2013-09-30 15:22:00,76.7,54.9,29.98,NW,304,1.0,2.0,47,0.00,,,0.00,592,WeatherCatV1.20B785,2013-09-30 19:22:00,
2013-09-30 15:23:00,76.8,55.0,29.98,NNE,27,1.0,2.0,47,0.00,,,0.00,589,WeatherCatV1.20B785,2013-09-30 19:23:00,
2013-09-30 15:25:00,77.0,54.6,29.98,NNE,26,1.0,1.0,46,0.00,,,0.00,592,WeatherCatV1.20B785,2013-09-30 19:25:00,
2013-09-30 15:26:00,77.1,54.1,29.98,NNW,348,0.0,1.0,45,0.00,,,0.00,591,WeatherCatV1.20B785,2013-09-30 19:26:00,
2013-09-30 15:28:00,77.2,54.2,29.98,NNE,27,0.0,2.0,45,0.00,,,0.00,585,WeatherCatV1.20B785,2013-09-30 19:28:00,
2013-09-30 15:29:00,77.2,54.2,29.98,NNE,27,1.0,1.0,45,0.00,,,0.00,585,WeatherCatV1.20B785,2013-09-30 19:29:00,
2013-09-30 15:31:00,77.2,54.2,29.98,NNE,23,0.0,1.0,45,0.00,,,0.00,582,WeatherCatV1.20B785,2013-09-30 19:31:00,
2013-09-30 15:32:00,77.2,54.2,29.98,West,279,0.0,2.0,45,0.00,,,0.00,582,WeatherCatV1.20B785,2013-09-30 19:32:00,
2013-09-30 15:33:00,77.3,54.3,29.98,WSW,244,1.0,2.0,45,0.00,,,0.00,564,WeatherCatV1.20B785,2013-09-30 19:33:00,
2013-09-30 15:34:00,77.3,54.3,29.98,WSW,250,2.0,2.0,45,0.00,,,0.00,564,WeatherCatV1.20B785,2013-09-30 19:34:00,
2013-09-30 15:37:00,77.4,54.4,29.98,WSW,255,1.0,2.0,45,0.00,,,0.00,563,WeatherCatV1.20B785,2013-09-30 19:37:00,
2013-09-30 15:39:00,77.5,55.1,29.98,West,260,1.0,2.0,46,0.00,,,0.00,561,WeatherCatV1.20B785,2013-09-30 19:39:00,
2013-09-30 15:42:00,78.0,55.5,29.98,WSW,239,1.0,2.0,46,0.00,,,0.00,566,WeatherCatV1.20B785,2013-09-30 19:42:00,
2013-09-30 15:43:00,78.2,55.7,29.98,WSW,239,0.0,2.0,46,0.00,,,0.00,564,WeatherCatV1.20B785,2013-09-30 19:43:00,
2013-09-30 15:44:00,78.2,55.7,29.98,WSW,239,0.0,1.0,46,0.00,,,0.00,559,WeatherCatV1.20B785,2013-09-30 19:44:00,
2013-09-30 15:47:00,78.5,55.4,29.98,North,3,0.0,2.0,45,0.00,,,0.00,557,WeatherCatV1.20B785,2013-09-30 19:47:00,
2013-09-30 15:49:00,78.6,55.5,29.98,WSW,246,0.0,3.0,45,0.00,,,0.00,557,WeatherCatV1.20B785,2013-09-30 19:49:00,
2013-09-30 15:50:00,78.7,56.2,29.98,West,271,2.0,2.0,46,0.00,,,0.00,559,WeatherCatV1.20B785,2013-09-30 19:50:00,
2013-09-30 15:54:00,78.8,55.0,29.98,SE,131,0.0,1.0,44,0.00,,,0.00,540,WeatherCatV1.20B785,2013-09-30 19:54:00,
2013-09-30 15:55:00,78.8,56.8,29.98,NW,310,1.0,2.0,47,0.00,,,0.00,534,WeatherCatV1.20B785,2013-09-30 19:55:00,
2013-09-30 15:56:00,78.8,55.6,29.98,West,277,1.0,3.0,45,0.00,,,0.00,531,WeatherCatV1.20B785,2013-09-30 19:56:00,
2013-09-30 15:59:00,78.7,54.9,29.98,NW,314,1.0,4.0,44,0.00,,,0.00,510,WeatherCatV1.20B785,2013-09-30 19:59:00,
2013-09-30 16:00:00,78.6,54.8,29.98,NW,314,0.0,2.0,44,0.00,,,0.00,510,WeatherCatV1.20B785,2013-09-30 20:00:00,
2013-09-30 16:04:00,78.2,55.1,29.98,ENE,63,2.0,4.0,45,0.00,,,0.00,271,WeatherCatV1.20B785,2013-09-30 20:04:00,
2013-09-30 16:05:00,78.2,55.7,29.98,North,7,2.0,4.0,46,0.00,,,0.00,271,WeatherCatV1.20B785,2013-09-30 20:05:00,
2013-09-30 16:09:00,77.6,54.5,29.98,SE,133,1.0,1.0,45,0.00,,,0.00,223,WeatherCatV1.20B785,2013-09-30 20:09:00,
2013-09-30 16:10:00,77.4,54.4,29.98,SE,128,0.0,1.0,45,0.00,,,0.00,134,WeatherCatV1.20B785,2013-09-30 20:10:00,
2013-09-30 16:11:00,77.3,54.3,29.98,SE,129,0.0,1.0,45,0.00,,,0.00,134,WeatherCatV1.20B785,2013-09-30 20:11:00,
2013-09-30 16:15:00,76.9,54.5,29.98,East,96,1.0,3.0,46,0.00,,,0.00,499,WeatherCatV1.20B785,2013-09-30 20:15:00,
2013-09-30 16:16:00,76.7,54.3,29.98,East,90,2.0,2.0,46,0.00,,,0.00,510,WeatherCatV1.20B785,2013-09-30 20:16:00,
2013-09-30 16:17:00,76.6,54.8,29.98,East,99,1.0,3.0,47,0.00,,,0.00,487,WeatherCatV1.20B785,2013-09-30 20:17:00,
2013-09-30 16:20:00,76.4,55.2,29.98,ESE,112,0.0,0.0,48,0.00,,,0.00,102,WeatherCatV1.20B785,2013-09-30 20:20:00,
2013-09-30 16:21:00,76.4,54.7,29.98,WNW,283,0.0,1.0,47,0.00,,,0.00,98,WeatherCatV1.20B785,2013-09-30 20:21:00,
2013-09-30 16:22:00,76.4,55.8,29.98,WNW,283,0.0,0.0,49,0.00,,,0.00,97,WeatherCatV1.20B785,2013-09-30 20:22:00,
2013-09-30 16:25:00,76.3,56.8,29.98,WNW,283,0.0,0.0,51,0.00,,,0.00,98,WeatherCatV1.20B785,2013-09-30 20:25:00,
2013-09-30 16:26:00,76.2,56.7,29.98,WNW,283,0.0,0.0,51,0.00,,,0.00,98,WeatherCatV1.20B785,2013-09-30 20:26:00,
2013-09-30 16:28:00,76.2,56.7,29.98,WNW,286,0.0,1.0,51,0.00,,,0.00,376,WeatherCatV1.20B785,2013-09-30 20:28:00,
2013-09-30 16:30:00,76.1,55.5,29.98,WNW,286,0.0,0.0,49,0.00,,,0.00,84,WeatherCatV1.20B785,2013-09-30 20:30:00,
2013-09-30 16:31:00,76.1,56.1,29.98,WNW,286,0.0,1.0,50,0.00,,,0.00,81,WeatherCatV1.20B785,2013-09-30 20:31:00,
2013-09-30 16:34:00,76.0,56.5,29.98,WNW,286,0.0,0.0,51,0.00,,,0.00,77,WeatherCatV1.20B785,2013-09-30 20:34:00,
2013-09-30 16:35:00,76.0,56.0,29.98,WNW,286,0.0,0.0,50,0.00,,,0.00,79,WeatherCatV1.20B785,2013-09-30 20:35:00,
2013-09-30 16:36:00,75.9,55.9,29.98,WNW,286,0.0,0.0,50,0.00,,,0.00,81,WeatherCatV1.20B785,2013-09-30 20:36:00,
2013-09-30 16:37:00,75.9,55.9,29.98,WNW,286,0.0,0.0,50,0.00,,,0.00,84,WeatherCatV1.20B785,2013-09-30 20:37:00,
2013-09-30 16:40:00,75.7,55.7,29.98,WNW,286,0.0,0.0,50,0.00,,,0.00,97,WeatherCatV1.20B785,2013-09-30 20:40:00,
2013-09-30 16:41:00,75.7,55.7,29.98,WNW,286,0.0,0.0,50,0.00,,,0.00,97,WeatherCatV1.20B785,2013-09-30 20:41:00,
2013-09-30 16:42:00,75.7,56.3,29.98,NW,312,0.0,1.0,51,0.00,,,0.00,95,WeatherCatV1.20B785,2013-09-30 20:42:00,
2013-09-30 16:46:00,75.5,55.5,29.98,NNW,330,0.0,0.0,50,0.00,,,0.00,95,WeatherCatV1.20B785,2013-09-30 20:46:00,
2013-09-30 16:47:00,75.4,56.0,29.98,ENE,59,1.0,1.0,51,0.00,,,0.00,97,WeatherCatV1.20B785,2013-09-30 20:47:00,
2013-09-30 16:48:00,75.4,56.0,29.98,East,90,1.0,2.0,51,0.00,,,0.00,95,WeatherCatV1.20B785,2013-09-30 20:48:00,
2013-09-30 16:51:00,75.2,54.7,29.97,East,90,0.0,1.0,49,0.00,,,0.00,84,WeatherCatV1.20B785,2013-09-30 20:51:00,
2013-09-30 16:52:00,75.1,54.6,29.97,East,90,0.0,1.0,49,0.00,,,0.00,83,WeatherCatV1.20B785,2013-09-30 20:52:00,
2013-09-30 16:53:00,75.1,55.2,29.97,East,90,0.0,0.0,50,0.00,,,0.00,83,WeatherCatV1.20B785,2013-09-30 20:53:00,
2013-09-30 16:56:00,74.9,55.0,29.97,East,90,0.0,0.0,50,0.00,,,0.00,104,WeatherCatV1.20B785,2013-09-30 20:56:00,
2013-09-30 16:57:00,74.9,55.0,29.97,East,90,0.0,0.0,50,0.00,,,0.00,93,WeatherCatV1.20B785,2013-09-30 20:57:00,
2013-09-30 16:58:00,74.9,55.5,29.97,East,90,0.0,0.0,51,0.00,,,0.00,93,WeatherCatV1.20B785,2013-09-30 20:58:00,
2013-09-30 17:01:00,74.8,56.0,29.98,East,90,0.0,0.0,52,0.00,,,0.00,121,WeatherCatV1.20B785,2013-09-30 21:01:00,
2013-09-30 17:02:00,74.8,55.4,29.97,East,90,0.0,0.0,51,0.00,,,0.00,155,WeatherCatV1.20B785,2013-09-30 21:02:00,
2013-09-30 17:03:00,74.8,54.9,29.97,East,90,0.0,0.0,50,0.00,,,0.00,155,WeatherCatV1.20B785,2013-09-30 21:03:00,
2013-09-30 17:04:00,74.8,54.9,29.97,East,90,0.0,1.0,50,0.00,,,0.00,151,WeatherCatV1.20B785,2013-09-30 21:04:00,
2013-09-30 17:07:00,74.8,54.9,29.97,ESE,108,1.0,2.0,50,0.00,,,0.00,243,WeatherCatV1.20B785,2013-09-30 21:07:00,
2013-09-30 17:08:00,74.8,54.9,29.97,ESE,102,1.0,3.0,50,0.00,,,0.00,248,WeatherCatV1.20B785,2013-09-30 21:08:00,
2013-09-30 17:09:00,74.8,54.3,29.98,ESE,102,0.0,3.0,49,0.00,,,0.00,165,WeatherCatV1.20B785,2013-09-30 21:09:00,
2013-09-30 17:12:00,74.8,54.9,29.97,ESE,104,1.0,5.0,50,0.00,,,0.00,294,WeatherCatV1.20B785,2013-09-30 21:12:00,
2013-09-30 17:13:00,74.8,54.9,29.98,ESE,104,0.0,5.0,50,0.00,,,0.00,297,WeatherCatV1.20B785,2013-09-30 21:13:00,
2013-09-30 17:14:00,74.8,54.9,29.98,ESE,104,0.0,1.0,50,0.00,,,0.00,258,WeatherCatV1.20B785,2013-09-30 21:14:00,
2013-09-30 17:17:00,74.8,55.4,29.98,ENE,65,1.0,3.0,51,0.00,,,0.00,260,WeatherCatV1.20B785,2013-09-30 21:17:00,
2013-09-30 17:18:00,74.9,55.5,29.98,East,88,2.0,3.0,51,0.00,,,0.00,279,WeatherCatV1.20B785,2013-09-30 21:18:00,
2013-09-30 17:19:00,74.9,55.5,29.98,East,99,1.0,3.0,51,0.00,,,0.00,279,WeatherCatV1.20B785,2013-09-30 21:19:00,
2013-09-30 17:23:00,74.9,55.5,29.98,East,83,0.0,1.0,51,0.00,,,0.00,88,WeatherCatV1.20B785,2013-09-30 21:23:00,
2013-09-30 17:24:00,74.9,55.0,29.97,ESE,104,1.0,3.0,50,0.00,,,0.00,81,WeatherCatV1.20B785,2013-09-30 21:24:00,
2013-09-30 17:25:00,74.8,56.0,29.98,ENE,67,2.0,6.0,52,0.00,,,0.00,67,WeatherCatV1.20B785,2013-09-30 21:25:00,
2013-09-30 17:26:00,74.8,56.0,29.98,NE,56,1.0,6.0,52,0.00,,,0.00,67,WeatherCatV1.20B785,2013-09-30 21:26:00,
2013-09-30 17:28:00,74.7,55.3,29.98,ESE,105,2.0,5.0,51,0.00,,,0.00,62,WeatherCatV1.20B785,2013-09-30 21:28:00,
2013-09-30 17:29:00,74.6,55.8,29.98,ESE,106,1.0,5.0,52,0.00,,,0.00,65,WeatherCatV1.20B785,2013-09-30 21:29:00,
2013-09-30 17:31:00,74.4,55.6,29.97,SSE,152,0.0,2.0,52,0.00,,,0.00,69,WeatherCatV1.20B785,2013-09-30 21:31:00,
2013-09-30 17:33:00,74.2,55.4,29.98,East,94,2.0,3.0,52,0.00,,,0.00,60,WeatherCatV1.20B785,2013-09-30 21:33:00,
2013-09-30 17:34:00,74.2,56.0,29.98,East,82,3.0,3.0,53,0.00,,,0.00,56,WeatherCatV1.20B785,2013-09-30 21:34:00,
2013-09-30 17:35:00,74.1,55.3,29.98,East,98,1.0,5.0,52,0.00,,,0.00,53,WeatherCatV1.20B785,2013-09-30 21:35:00,
2013-09-30 17:36:00,74.0,55.2,29.98,ENE,73,1.0,5.0,52,0.00,,,0.00,53,WeatherCatV1.20B785,2013-09-30 21:36:00,
2013-09-30 17:37:00,74.0,55.2,29.97,East,96,1.0,5.0,52,0.00,,,0.00,53,WeatherCatV1.20B785,2013-09-30 21:37:00,
2013-09-30 17:38:00,73.9,55.7,29.98,East,96,0.0,2.0,53,0.00,,,0.00,65,WeatherCatV1.20B785,2013-09-30 21:38:00,
2013-09-30 17:39:00,73.9,55.7,29.98,East,94,2.0,3.0,53,0.00,,,0.00,72,WeatherCatV1.20B785,2013-09-30 21:39:00,
2013-09-30 17:40:00,73.8,55.1,29.98,East,96,2.0,3.0,52,0.00,,,0.00,72,WeatherCatV1.20B785,2013-09-30 21:40:00,
2013-09-30 17:42:00,73.7,55.5,29.98,East,98,2.0,5.0,53,0.00,,,0.00,76,WeatherCatV1.20B785,2013-09-30 21:42:00,
2013-09-30 17:43:00,73.6,55.4,29.98,ESE,108,1.0,2.0,53,0.00,,,0.00,84,WeatherCatV1.20B785,2013-09-30 21:43:00,
2013-09-30 17:44:00,73.6,55.4,29.98,ESE,108,1.0,2.0,53,0.00,,,0.00,84,WeatherCatV1.20B785,2013-09-30 21:44:00,
2013-09-30 17:45:00,73.5,55.8,29.98,East,98,1.0,1.0,54,0.00,,,0.00,60,WeatherCatV1.20B785,2013-09-30 21:45:00,
2013-09-30 17:48:00,73.4,55.7,29.98,ESE,110,0.0,1.0,54,0.00,,,0.00,62,WeatherCatV1.20B785,2013-09-30 21:48:00,
2013-09-30 17:49:00,73.3,55.6,29.98,ESE,110,0.0,1.0,54,0.00,,,0.00,62,WeatherCatV1.20B785,2013-09-30 21:49:00,
2013-09-30 17:51:00,73.3,55.1,29.98,East,89,0.0,2.0,53,0.00,,,0.00,60,WeatherCatV1.20B785,2013-09-30 21:51:00,
2013-09-30 17:53:00,73.2,55.5,29.98,East,98,0.0,3.0,54,0.00,,,0.00,54,WeatherCatV1.20B785,2013-09-30 21:53:00,
2013-09-30 17:54:00,73.2,55.5,29.98,East,98,1.0,3.0,54,0.00,,,0.00,54,WeatherCatV1.20B785,2013-09-30 21:54:00,
2013-09-30 17:55:00,73.1,55.5,29.98,East,92,1.0,2.0,54,0.00,,,0.00,51,WeatherCatV1.20B785,2013-09-30 21:55:00,
2013-09-30 17:56:00,73.1,55.5,29.98,East,94,1.0,2.0,54,0.00,,,0.00,44,WeatherCatV1.20B785,2013-09-30 21:56:00,
2013-09-30 17:59:00,73.1,55.5,29.98,East,94,0.0,0.0,54,0.00,,,0.00,44,WeatherCatV1.20B785,2013-09-30 21:59:00,
2013-09-30 18:00:00,73.0,55.4,29.98,East,88,2.0,2.0,54,0.00,,,0.00,40,WeatherCatV1.20B785,2013-09-30 22:00:00,
2013-09-30 18:01:00,73.0,55.4,29.98,East,93,0.0,2.0,54,0.00,,,0.00,35,WeatherCatV1.20B785,2013-09-30 22:01:00,
2013-09-30 18:04:00,72.9,55.8,29.98,East,93,0.0,1.0,55,0.00,,,0.00,32,WeatherCatV1.20B785,2013-09-30 22:04:00,
2013-09-30 18:05:00,72.8,55.7,29.98,East,93,1.0,1.0,55,0.00,,,0.00,30,WeatherCatV1.20B785,2013-09-30 22:05:00,
2013-09-30 18:06:00,72.8,55.7,29.98,East,93,0.0,1.0,55,0.00,,,0.00,30,WeatherCatV1.20B785,2013-09-30 22:06:00,
2013-09-30 18:10:00,72.6,56.0,29.98,East,93,0.0,0.0,56,0.00,,,0.00,26,WeatherCatV1.20B785,2013-09-30 22:10:00,
2013-09-30 18:11:00,72.5,55.9,29.98,East,93,0.0,0.0,56,0.00,,,0.00,25,WeatherCatV1.20B785,2013-09-30 22:11:00,
2013-09-30 18:12:00,72.4,55.8,29.98,East,93,0.0,0.0,56,0.00,,,0.00,23,WeatherCatV1.20B785,2013-09-30 22:12:00,
2013-09-30 18:15:00,72.2,56.1,29.98,East,93,0.0,0.0,57,0.00,,,0.00,21,WeatherCatV1.20B785,2013-09-30 22:15:00,
2013-09-30 18:16:00,72.2,56.1,29.98,East,93,0.0,0.0,57,0.00,,,0.00,19,WeatherCatV1.20B785,2013-09-30 22:16:00,
2013-09-30 18:17:00,72.1,56.0,29.98,East,93,0.0,0.0,57,0.00,,,0.00,19,WeatherCatV1.20B785,2013-09-30 22:17:00,
2013-09-30 18:18:00,72.0,56.4,29.98,East,93,0.0,0.0,58,0.00,,,0.00,19,WeatherCatV1.20B785,2013-09-30 22:18:00,
2013-09-30 18:21:00,71.7,56.6,29.98,East,93,0.0,0.0,59,0.00,,,0.00,18,WeatherCatV1.20B785,2013-09-30 22:21:00,
2013-09-30 18:22:00,71.6,57.0,29.98,East,93,0.0,0.0,60,0.00,,,0.00,18,WeatherCatV1.20B785,2013-09-30 22:22:00,
2013-09-30 18:23:00,71.5,56.9,29.98,East,93,0.0,1.0,60,0.00,,,0.00,16,WeatherCatV1.20B785,2013-09-30 22:23:00,
2013-09-30 18:26:00,71.0,56.9,29.98,NW,306,2.0,2.0,61,0.00,,,0.00,16,WeatherCatV1.20B785,2013-09-30 22:26:00,
2013-09-30 18:27:00,70.8,57.6,29.98,NW,306,0.0,2.0,63,0.00,,,0.00,14,WeatherCatV1.20B785,2013-09-30 22:27:00,
2013-09-30 18:28:00,70.7,57.5,29.98,NW,306,0.0,2.0,63,0.00,,,0.00,14,WeatherCatV1.20B785,2013-09-30 22:28:00,
2013-09-30 18:31:00,70.1,57.3,29.98,NW,306,0.0,1.0,64,0.00,,,0.00,12,WeatherCatV1.20B785,2013-09-30 22:31:00,
2013-09-30 18:32:00,70.0,57.7,29.98,NW,306,0.0,1.0,65,0.00,,,0.00,12,WeatherCatV1.20B785,2013-09-30 22:32:00,
2013-09-30 18:33:00,69.8,57.5,29.99,NW,306,0.0,1.0,65,0.00,,,0.00,11,WeatherCatV1.20B785,2013-09-30 22:33:00,
2013-09-30 18:34:00,69.7,57.8,29.99,NW,306,0.0,0.0,66,0.00,,,0.00,11,WeatherCatV1.20B785,2013-09-30 22:34:00,
2013-09-30 18:36:00,69.3,57.4,29.98,NW,306,1.0,1.0,66,0.00,,,0.00,11,WeatherCatV1.20B785,2013-09-30 22:36:00,
2013-09-30 18:37:00,69.2,57.3,29.99,NW,306,0.0,1.0,66,0.00,,,0.00,11,WeatherCatV1.20B785,2013-09-30 22:37:00,
2013-09-30 18:39:00,68.9,57.1,29.99,NW,306,0.0,1.0,66,0.00,,,0.00,9,WeatherCatV1.20B785,2013-09-30 22:39:00,
2013-09-30 18:41:00,68.5,56.7,29.98,NW,306,0.0,1.0,66,0.00,,,0.00,7,WeatherCatV1.20B785,2013-09-30 22:41:00,
2013-09-30 18:42:00,68.5,56.7,29.98,NW,306,0.0,1.0,66,0.00,,,0.00,7,WeatherCatV1.20B785,2013-09-30 22:42:00,
2013-09-30 18:43:00,68.3,56.9,29.98,NW,306,0.0,0.0,67,0.00,,,0.00,7,WeatherCatV1.20B785,2013-09-30 22:43:00,
2013-09-30 18:44:00,68.3,56.9,29.98,NW,306,0.0,0.0,67,0.00,,,0.00,7,WeatherCatV1.20B785,2013-09-30 22:44:00,
2013-09-30 18:48:00,68.0,57.0,29.99,NW,306,0.0,0.0,68,0.00,,,0.00,5,WeatherCatV1.20B785,2013-09-30 22:48:00,
2013-09-30 18:49:00,67.8,57.2,29.99,NW,306,0.0,0.0,69,0.00,,,0.00,5,WeatherCatV1.20B785,2013-09-30 22:49:00,
2013-09-30 18:53:00,67.4,57.3,29.99,NW,306,1.0,1.0,70,0.00,,,0.00,5,WeatherCatV1.20B785,2013-09-30 22:53:00,
2013-09-30 18:54:00,67.4,57.3,29.99,NW,306,0.0,2.0,70,0.00,,,0.00,0,WeatherCatV1.20B785,2013-09-30 22:54:00,
2013-09-30 18:55:00,67.3,57.2,29.99,NW,306,2.0,2.0,70,0.00,,,0.00,0,WeatherCatV1.20B785,2013-09-30 22:55:00,
2013-09-30 18:58:00,66.6,56.9,29.99,NW,306,0.0,2.0,71,0.00,,,0.00,0,WeatherCatV1.20B785,2013-09-30 22:58:00,
2013-09-30 18:59:00,66.5,57.2,29.99,NW,306,0.0,2.0,72,0.00,,,0.00,0,WeatherCatV1.20B785,2013-09-30 22:59:00,
2013-09-30 19:00:00,66.4,57.1,29.99,NW,306,0.0,1.0,72,0.00,,,0.00,0,WeatherCatV1.20B785,2013-09-30 23:00:00,
2013-09-30 19:02:00,66.0,56.7,29.99,NW,306,0.0,1.0,72,0.00,,,0.00,0,WeatherCatV1.20B785,2013-09-30 23:02:00,
2013-09-30 19:04:00,65.7,56.8,29.99,NW,306,0.0,1.0,73,0.00,,,0.00,0,WeatherCatV1.20B785,2013-09-30 23:04:00,
2013-09-30 19:05:00,65.6,56.7,30.00,NW,306,1.0,1.0,73,0.00,,,0.00,0,WeatherCatV1.20B785,2013-09-30 23:05:00,
2013-09-30 19:08:00,65.3,56.8,30.00,NW,306,1.0,1.0,74,0.00,,,0.00,0,WeatherCatV1.20B785,2013-09-30 23:08:00,
2013-09-30 19:09:00,65.2,56.7,30.00,NW,306,0.0,1.0,74,0.00,,,0.00,0,WeatherCatV1.20B785,2013-09-30 23:09:00,
2013-09-30 19:10:00,65.1,56.6,30.00,NW,306,0.0,0.0,74,0.00,,,0.00,0,WeatherCatV1.20B785,2013-09-30 23:10:00,
2013-09-30 19:13:00,64.8,56.7,30.00,NW,306,0.0,1.0,75,0.00,,,0.00,0,WeatherCatV1.20B785,2013-09-30 23:13:00,
2013-09-30 19:14:00,64.8,56.7,30.00,NW,306,0.0,1.0,75,0.00,,,0.00,0,WeatherCatV1.20B785,2013-09-30 23:14:00,
2013-09-30 19:15:00,64.7,56.6,30.00,NW,306,1.0,1.0,75,0.00,,,0.00,0,WeatherCatV1.20B785,2013-09-30 23:15:00,
2013-09-30 19:17:00,64.5,56.8,30.00,NW,306,1.0,2.0,76,0.00,,,0.00,0,WeatherCatV1.20B785,2013-09-30 23:17:00,
2013-09-30 19:18:00,64.4,56.7,30.00,NW,306,1.0,1.0,76,0.00,,,0.00,0,WeatherCatV1.20B785,2013-09-30 23:18:00,
2013-09-30 19:19:00,64.3,56.6,30.00,NW,306,1.0,1.0,76,0.00,,,0.00,0,WeatherCatV1.20B785,2013-09-30 23:19:00,
2013-09-30 19:20:00,64.3,56.6,30.00,NW,306,0.0,1.0,76,0.00,,,0.00,0,WeatherCatV1.20B785,2013-09-30 23:20:00,
2013-09-30 19:21:00,64.2,56.5,30.00,NW,306,0.0,1.0,76,0.00,,,0.00,0,WeatherCatV1.20B785,2013-09-30 23:21:00,
2013-09-30 19:22:00,64.2,56.8,30.00,NW,306,0.0,1.0,77,0.00,,,0.00,0,WeatherCatV1.20B785,2013-09-30 23:22:00,
2013-09-30 19:24:00,64.0,56.6,30.00,NW,306,0.0,0.0,77,0.00,,,0.00,0,WeatherCatV1.20B785,2013-09-30 23:24:00,
2013-09-30 19:25:00,64.0,56.6,30.00,NW,306,0.0,0.0,77,0.00,,,0.00,0,WeatherCatV1.20B785,2013-09-30 23:25:00,
2013-09-30 19:26:00,64.0,56.6,30.00,NW,306,0.0,0.0,77,0.00,,,0.00,0,WeatherCatV1.20B785,2013-09-30 23:26:00,
2013-09-30 19:27:00,63.9,56.5,30.00,NW,306,0.0,0.0,77,0.00,,,0.00,0,WeatherCatV1.20B785,2013-09-30 23:27:00,
2013-09-30 19:30:00,63.5,56.2,30.00,NW,306,0.0,0.0,77,0.00,,,0.00,0,WeatherCatV1.20B785,2013-09-30 23:30:00,
2013-09-30 19:31:00,63.4,56.4,30.00,NW,306,0.0,0.0,78,0.00,,,0.00,0,WeatherCatV1.20B785,2013-09-30 23:31:00,
2013-09-30 19:32:00,63.4,56.4,30.00,NW,306,0.0,0.0,78,0.00,,,0.00,0,WeatherCatV1.20B785,2013-09-30 23:32:00,
2013-09-30 19:35:00,63.2,56.2,30.00,NW,306,0.0,0.0,78,0.00,,,0.00,0,WeatherCatV1.20B785,2013-09-30 23:35:00,
2013-09-30 19:37:00,63.1,56.1,30.00,NW,306,0.0,0.0,78,0.00,,,0.00,0,WeatherCatV1.20B785,2013-09-30 23:37:00,
2013-09-30 19:40:00,62.9,56.3,30.00,NW,306,0.0,0.0,79,0.00,,,0.00,0,WeatherCatV1.20B785,2013-09-30 23:40:00,
2013-09-30 19:41:00,62.9,56.3,30.00,NW,306,0.0,0.0,79,0.00,,,0.00,0,WeatherCatV1.20B785,2013-09-30 23:41:00,
2013-09-30 19:42:00,62.8,56.2,30.00,NW,306,0.0,0.0,79,0.00,,,0.00,0,WeatherCatV1.20B785,2013-09-30 23:42:00,
2013-09-30 19:43:00,62.7,56.1,30.00,NW,306,0.0,0.0,79,0.00,,,0.00,0,WeatherCatV1.20B785,2013-09-30 23:43:00,
2013-09-30 19:46:00,62.5,56.2,30.00,NW,306,0.0,0.0,80,0.00,,,0.00,0,WeatherCatV1.20B785,2013-09-30 23:46:00,
2013-09-30 19:47:00,62.5,56.2,30.00,NW,306,0.0,0.0,80,0.00,,,0.00,0,WeatherCatV1.20B785,2013-09-30 23:47:00,
2013-09-30 19:49:00,62.4,56.1,30.00,NW,306,0.0,0.0,80,0.00,,,0.00,0,WeatherCatV1.20B785,2013-09-30 23:49:00,
2013-09-30 19:51:00,62.3,56.0,30.00,NW,306,0.0,0.0,80,0.00,,,0.00,0,WeatherCatV1.20B785,2013-09-30 23:51:00,
2013-09-30 19:52:00,62.2,56.3,30.00,NW,306,0.0,1.0,81,0.00,,,0.00,0,WeatherCatV1.20B785,2013-09-30 23:52:00,
2013-09-30 19:53:00,62.2,56.3,30.00,NW,306,0.0,1.0,81,0.00,,,0.00,0,WeatherCatV1.20B785,2013-09-30 23:53:00,
2013-09-30 19:54:00,62.1,56.2,30.00,NW,306,1.0,1.0,81,0.00,,,0.00,0,WeatherCatV1.20B785,2013-09-30 23:54:00,
2013-09-30 19:56:00,62.0,56.1,30.01,NW,306,0.0,1.0,81,0.00,,,0.00,0,WeatherCatV1.20B785,2013-09-30 23:56:00,
2013-09-30 19:57:00,61.9,56.0,30.01,NW,306,0.0,0.0,81,0.00,,,0.00,0,WeatherCatV1.20B785,2013-09-30 23:57:00,
2013-09-30 19:58:00,61.8,56.2,30.01,NW,306,0.0,0.0,82,0.00,,,0.00,0,WeatherCatV1.20B785,2013-09-30 23:58:00,
2013-09-30 20:00:00,61.7,56.1,30.01,NW,306,0.0,0.0,82,0.00,,,0.00,0,WeatherCatV1.20B785,2013-10-01 00:00:00,
2013-09-30 20:01:00,61.6,56.0,30.01,NW,306,0.0,0.0,82,0.00,,,0.00,0,WeatherCatV1.20B785,2013-10-01 00:01:00,
2013-09-30 20:03:00,61.6,56.0,30.01,NW,306,0.0,0.0,82,0.00,,,0.00,0,WeatherCatV1.20B785,2013-10-01 00:03:00,
2013-09-30 20:04:00,61.5,56.0,30.01,NW,306,0.0,0.0,82,0.00,,,0.00,0,WeatherCatV1.20B785,2013-10-01 00:04:00,
2013-09-30 20:05:00,61.5,56.0,30.01,NW,306,0.0,0.0,82,0.00,,,0.00,0,WeatherCatV1.20B785,2013-10-01 00:05:00,
2013-09-30 20:06:00,61.5,56.0,30.01,NW,306,0.0,0.0,82,0.00,,,0.00,0,WeatherCatV1.20B785,2013-10-01 00:06:00,
2013-09-30 20:07:00,61.4,55.8,30.01,NW,306,0.0,0.0,82,0.00,,,0.00,0,WeatherCatV1.20B785,2013-10-01 00:07:00,
2013-09-30 20:08:00,61.4,55.8,30.01,NW,306,0.0,0.0,82,0.00,,,0.00,0,WeatherCatV1.20B785,2013-10-01 00:08:00,
2013-09-30 20:09:00,61.4,55.8,30.01,NW,306,0.0,0.0,82,0.00,,,0.00,0,WeatherCatV1.20B785,2013-10-01 00:09:00,
2013-09-30 20:10:00,61.4,55.8,30.01,NW,306,0.0,0.0,82,0.00,,,0.00,0,WeatherCatV1.20B785,2013-10-01 00:10:00,
2013-09-30 20:12:00,61.3,56.1,30.01,NW,306,0.0,1.0,83,0.00,,,0.00,0,WeatherCatV1.20B785,2013-10-01 00:12:00,
2013-09-30 20:14:00,61.3,56.1,30.01,NW,306,0.0,0.0,83,0.00,,,0.00,0,WeatherCatV1.20B785,2013-10-01 00:14:00,
2013-09-30 20:15:00,61.3,56.1,30.01,NW,306,0.0,0.0,83,0.00,,,0.00,0,WeatherCatV1.20B785,2013-10-01 00:15:00,
2013-09-30 20:16:00,61.3,56.1,30.02,NW,306,0.0,0.0,83,0.00,,,0.00,0,WeatherCatV1.20B785,2013-10-01 00:16:00,
2013-09-30 20:17:00,61.3,56.1,30.02,NW,306,0.0,0.0,83,0.00,,,0.00,0,WeatherCatV1.20B785,2013-10-01 00:17:00,
2013-09-30 20:19:00,61.2,56.0,30.02,NW,306,0.0,0.0,83,0.00,,,0.00,0,WeatherCatV1.20B785,2013-10-01 00:19:00,
2013-09-30 20:20:00,61.2,56.0,30.02,NW,306,0.0,0.0,83,0.00,,,0.00,0,WeatherCatV1.20B785,2013-10-01 00:20:00,
2013-09-30 20:22:00,61.2,56.0,30.02,NW,306,0.0,0.0,83,0.00,,,0.00,0,WeatherCatV1.20B785,2013-10-01 00:22:00,
2013-09-30 20:24:00,61.1,55.9,30.02,NW,306,0.0,0.0,83,0.00,,,0.00,0,WeatherCatV1.20B785,2013-10-01 00:24:00,
2013-09-30 20:25:00,61.1,55.9,30.02,NW,306,0.0,0.0,83,0.00,,,0.00,0,WeatherCatV1.20B785,2013-10-01 00:25:00,
2013-09-30 20:27:00,61.0,55.8,30.02,NW,306,0.0,0.0,83,0.00,,,0.00,0,WeatherCatV1.20B785,2013-10-01 00:27:00,
2013-09-30 20:28:00,61.0,55.8,30.02,NW,306,0.0,0.0,83,0.00,,,0.00,0,WeatherCatV1.20B785,2013-10-01 00:28:00,
2013-09-30 20:29:00,61.0,55.8,30.02,NW,306,0.0,0.0,83,0.00,,,0.00,0,WeatherCatV1.20B785,2013-10-01 00:29:00,
2013-09-30 20:30:00,61.0,55.8,30.02,NW,306,0.0,0.0,83,0.00,,,0.00,0,WeatherCatV1.20B785,2013-10-01 00:30:00,
2013-09-30 20:33:00,60.9,55.7,30.02,NW,306,0.0,0.0,83,0.00,,,0.00,0,WeatherCatV1.20B785,2013-10-01 00:33:00,
2013-09-30 20:34:00,60.9,55.7,30.02,NW,306,0.0,0.0,83,0.00,,,0.00,0,WeatherCatV1.20B785,2013-10-01 00:34:00,
2013-09-30 20:36:00,60.8,55.6,30.02,NW,306,0.0,0.0,83,0.00,,,0.00,0,WeatherCatV1.20B785,2013-10-01 00:36:00,
2013-09-30 20:38:00,60.7,55.8,30.02,NW,306,0.0,1.0,84,0.00,,,0.00,0,WeatherCatV1.20B785,2013-10-01 00:38:00,
2013-09-30 20:40:00,60.7,55.8,30.02,NW,306,0.0,0.0,84,0.00,,,0.00,0,WeatherCatV1.20B785,2013-10-01 00:40:00,
2013-09-30 20:41:00,60.6,55.7,30.02,NW,306,0.0,0.0,84,0.00,,,0.00,0,WeatherCatV1.20B785,2013-10-01 00:41:00,
2013-09-30 20:43:00,60.5,55.6,30.02,NW,306,0.0,0.0,84,0.00,,,0.00,0,WeatherCatV1.20B785,2013-10-01 00:43:00,
2013-09-30 20:44:00,60.5,55.6,30.02,NW,306,0.0,0.0,84,0.00,,,0.00,0,WeatherCatV1.20B785,2013-10-01 00:44:00,
2013-09-30 20:45:00,60.4,55.5,30.02,NW,306,0.0,0.0,84,0.00,,,0.00,0,WeatherCatV1.20B785,2013-10-01 00:45:00,
2013-09-30 20:47:00,60.4,55.5,30.03,NW,306,0.0,0.0,84,0.00,,,0.00,0,WeatherCatV1.20B785,2013-10-01 00:47:00,
2013-09-30 20:49:00,60.3,55.4,30.02,NW,306,0.0,0.0,84,0.00,,,0.00,0,WeatherCatV1.20B785,2013-10-01 00:49:00,
2013-09-30 20:50:00,60.2,55.3,30.03,NW,306,0.0,0.0,84,0.00,,,0.00,0,WeatherCatV1.20B785,2013-10-01 00:50:00,
2013-09-30 20:52:00,60.2,55.7,30.03,NW,306,0.0,0.0,85,0.00,,,0.00,0,WeatherCatV1.20B785,2013-10-01 00:52:00,
2013-09-30 20:54:00,60.0,55.5,30.03,NW,306,0.0,0.0,85,0.00,,,0.00,0,WeatherCatV1.20B785,2013-10-01 00:54:00,
2013-09-30 20:55:00,60.0,55.5,30.03,NW,306,0.0,0.0,85,0.00,,,0.00,0,WeatherCatV1.20B785,2013-10-01 00:55:00,
2013-09-30 20:56:00,59.9,55.4,30.03,NW,306,0.0,0.0,85,0.00,,,0.00,0,WeatherCatV1.20B785,2013-10-01 00:56:00,
2013-09-30 20:57:00,59.9,55.4,30.03,NW,306,0.0,0.0,85,0.00,,,0.00,0,WeatherCatV1.20B785,2013-10-01 00:57:00,
2013-09-30 20:59:00,59.8,55.3,30.03,NW,306,0.0,0.0,85,0.00,,,0.00,0,WeatherCatV1.20B785,2013-10-01 00:59:00,
2013-09-30 21:00:00,59.8,55.3,30.03,NW,306,0.0,0.0,85,0.00,,,0.00,0,WeatherCatV1.20B785,2013-10-01 01:00:00,
2013-09-30 21:01:00,59.7,55.2,30.03,NW,306,0.0,0.0,85,0.00,,,0.00,0,WeatherCatV1.20B785,2013-10-01 01:01:00,
2013-09-30 21:02:00,59.6,55.1,30.03,NW,306,0.0,0.0,85,0.00,,,0.00,0,WeatherCatV1.20B785,2013-10-01 01:02:00,
2013-09-30 21:05:00,59.5,55.3,30.03,NW,306,0.0,0.0,86,0.00,,,0.00,0,WeatherCatV1.20B785,2013-10-01 01:05:00,
2013-09-30 21:06:00,59.4,55.2,30.03,NW,306,0.0,0.0,86,0.00,,,0.00,0,WeatherCatV1.20B785,2013-10-01 01:06:00,
2013-09-30 21:08:00,59.3,55.1,30.03,NW,306,0.0,0.0,86,0.00,,,0.00,0,WeatherCatV1.20B785,2013-10-01 01:08:00,
2013-09-30 21:10:00,59.2,55.0,30.03,NW,306,0.0,0.0,86,0.00,,,0.00,0,WeatherCatV1.20B785,2013-10-01 01:10:00,
2013-09-30 21:11:00,59.1,54.9,30.03,NW,306,0.0,0.0,86,0.00,,,0.00,0,WeatherCatV1.20B785,2013-10-01 01:11:00,
2013-09-30 21:13:00,59.0,54.8,30.03,NW,306,0.0,0.0,86,0.00,,,0.00,0,WeatherCatV1.20B785,2013-10-01 01:13:00,
2013-09-30 21:15:00,58.9,54.7,30.03,NW,306,0.0,0.0,86,0.00,,,0.00,0,WeatherCatV1.20B785,2013-10-01 01:15:00,
2013-09-30 21:16:00,58.8,54.6,30.03,NW,306,0.0,0.0,86,0.00,,,0.00,0,WeatherCatV1.20B785,2013-10-01 01:16:00,
2013-09-30 21:17:00,58.8,54.6,30.03,NW,306,0.0,0.0,86,0.00,,,0.00,0,WeatherCatV1.20B785,2013-10-01 01:17:00,
2013-09-30 21:19:00,58.7,54.5,30.03,NW,306,0.0,0.0,86,0.00,,,0.00,0,WeatherCatV1.20B785,2013-10-01 01:19:00,
2013-09-30 21:20:00,58.6,54.7,30.03,NW,306,0.0,0.0,87,0.00,,,0.00,0,WeatherCatV1.20B785,2013-10-01 01:20:00,
2013-09-30 21:21:00,58.5,54.6,30.03,NW,306,0.0,0.0,87,0.00,,,0.00,0,WeatherCatV1.20B785,2013-10-01 01:21:00,
2013-09-30 21:22:00,58.5,54.6,30.03,NW,306,0.0,0.0,87,0.00,,,0.00,0,WeatherCatV1.20B785,2013-10-01 01:22:00,
2013-09-30 21:24:00,58.4,54.5,30.03,NW,306,0.0,0.0,87,0.00,,,0.00,0,WeatherCatV1.20B785,2013-10-01 01:24:00,
2013-09-30 21:25:00,58.3,54.4,30.03,NW,306,0.0,0.0,87,0.00,,,0.00,0,WeatherCatV1.20B785,2013-10-01 01:25:00,
2013-09-30 21:26:00,58.3,54.4,30.03,NW,306,0.0,0.0,87,0.00,,,0.00,0,WeatherCatV1.20B785,2013-10-01 01:26:00,
2013-09-30 21:27:00,58.2,54.3,30.03,NW,306,0.0,0.0,87,0.00,,,0.00,0,WeatherCatV1.20B785,2013-10-01 01:27:00,
2013-09-30 21:29:00,58.2,54.3,30.03,NW,306,0.0,0.0,87,0.00,,,0.00,0,WeatherCatV1.20B785,2013-10-01 01:29:00,
2013-09-30 21:30:00,58.1,54.2,30.03,NW,306,0.0,0.0,87,0.00,,,0.00,0,WeatherCatV1.20B785,2013-10-01 01:30:00,
2013-09-30 21:31:00,58.0,54.2,30.03,NW,306,0.0,0.0,87,0.00,,,0.00,0,WeatherCatV1.20B785,2013-10-01 01:31:00,
2013-09-30 21:32:00,58.0,54.2,30.03,NW,306,0.0,0.0,87,0.00,,,0.00,0,WeatherCatV1.20B785,2013-10-01 01:32:00,
2013-09-30 21:35:00,57.9,54.0,30.03,NW,306,0.0,1.0,87,0.00,,,0.00,0,WeatherCatV1.20B785,2013-10-01 01:35:00,
2013-09-30 21:37:00,57.7,53.8,30.03,NW,306,0.0,0.0,87,0.00,,,0.00,0,WeatherCatV1.20B785,2013-10-01 01:37:00,
2013-09-30 21:40:00,57.4,53.6,30.03,NW,306,0.0,0.0,87,0.00,,,0.00,0,WeatherCatV1.20B785,2013-10-01 01:40:00,
2013-09-30 21:41:00,57.3,53.5,30.03,NW,306,0.0,0.0,87,0.00,,,0.00,0,WeatherCatV1.20B785,2013-10-01 01:41:00,
2013-09-30 21:42:00,57.3,53.8,30.03,NW,306,0.0,0.0,88,0.00,,,0.00,0,WeatherCatV1.20B785,2013-10-01 01:42:00,
2013-09-30 21:45:00,57.1,53.6,30.03,NW,306,0.0,0.0,88,0.00,,,0.00,0,WeatherCatV1.20B785,2013-10-01 01:45:00,
2013-09-30 21:46:00,57.1,53.6,30.03,NW,306,0.0,0.0,88,0.00,,,0.00,0,WeatherCatV1.20B785,2013-10-01 01:46:00,
2013-09-30 21:47:00,57.1,53.6,30.03,NW,306,0.0,0.0,88,0.00,,,0.00,0,WeatherCatV1.20B785,2013-10-01 01:47:00,
2013-09-30 21:50:00,56.9,53.4,30.03,NW,306,0.0,0.0,88,0.00,,,0.00,0,WeatherCatV1.20B785,2013-10-01 01:50:00,
2013-09-30 21:51:00,56.9,53.4,30.03,NW,306,0.0,0.0,88,0.00,,,0.00,0,WeatherCatV1.20B785,2013-10-01 01:51:00,
2013-09-30 21:52:00,56.9,53.4,30.03,NW,306,0.0,0.0,88,0.00,,,0.00,0,WeatherCatV1.20B785,2013-10-01 01:52:00,
2013-09-30 21:53:00,56.9,53.4,30.03,NW,306,0.0,0.0,88,0.00,,,0.00,0,WeatherCatV1.20B785,2013-10-01 01:53:00,
2013-09-30 21:56:00,56.8,53.3,30.03,NW,306,0.0,0.0,88,0.00,,,0.00,0,WeatherCatV1.20B785,2013-10-01 01:56:00,
2013-09-30 21:57:00,56.7,53.2,30.03,NW,306,0.0,0.0,88,0.00,,,0.00,0,WeatherCatV1.20B785,2013-10-01 01:57:00,
2013-09-30 21:58:00,56.6,53.1,30.03,NW,306,0.0,0.0,88,0.00,,,0.00,0,WeatherCatV1.20B785,2013-10-01 01:58:00,
2013-09-30 22:01:00,56.5,53.0,30.03,NW,306,0.0,0.0,88,0.00,,,0.00,0,WeatherCatV1.20B785,2013-10-01 02:01:00,
2013-09-30 22:02:00,56.5,53.0,30.03,NW,306,0.0,0.0,88,0.00,,,0.00,0,WeatherCatV1.20B785,2013-10-01 02:02:00,
2013-09-30 22:03:00,56.4,52.9,30.03,NW,306,0.0,0.0,88,0.00,,,0.00,0,WeatherCatV1.20B785,2013-10-01 02:03:00,
2013-09-30 22:06:00,56.3,52.8,30.03,NW,306,0.0,0.0,88,0.00,,,0.00,0,WeatherCatV1.20B785,2013-10-01 02:06:00,
2013-09-30 22:07:00,56.3,52.8,30.03,NW,306,0.0,0.0,88,0.00,,,0.00,0,WeatherCatV1.20B785,2013-10-01 02:07:00,
2013-09-30 22:08:00,56.2,52.7,30.03,NW,306,0.0,0.0,88,0.00,,,0.00,0,WeatherCatV1.20B785,2013-10-01 02:08:00,
2013-09-30 22:09:00,56.2,52.7,30.03,NW,306,0.0,0.0,88,0.00,,,0.00,0,WeatherCatV1.20B785,2013-10-01 02:09:00,
2013-09-30 22:12:00,56.0,52.5,30.03,NW,306,0.0,0.0,88,0.00,,,0.00,0,WeatherCatV1.20B785,2013-10-01 02:12:00,
2013-09-30 22:13:00,56.0,52.5,30.03,NW,306,0.0,0.0,88,0.00,,,0.00,0,WeatherCatV1.20B785,2013-10-01 02:13:00,
2013-09-30 22:14:00,55.9,52.4,30.03,NW,306,0.0,0.0,88,0.00,,,0.00,0,WeatherCatV1.20B785,2013-10-01 02:14:00,
2013-09-30 22:15:00,55.9,52.4,30.03,NW,306,0.0,0.0,88,0.00,,,0.00,0,WeatherCatV1.20B785,2013-10-01 02:15:00,
2013-09-30 22:17:00,55.8,52.3,30.03,NW,306,0.0,0.0,88,0.00,,,0.00,0,WeatherCatV1.20B785,2013-10-01 02:17:00,
2013-09-30 22:19:00,55.8,52.3,30.03,NW,306,0.0,0.0,88,0.00,,,0.00,0,WeatherCatV1.20B785,2013-10-01 02:19:00,
2013-09-30 22:20:00,55.8,52.3,30.03,NW,306,0.0,0.0,88,0.00,,,0.00,0,WeatherCatV1.20B785,2013-10-01 02:20:00,
2013-09-30 22:23:00,55.7,52.2,30.03,NW,306,0.0,0.0,88,0.00,,,0.00,0,WeatherCatV1.20B785,2013-10-01 02:23:00,
2013-09-30 22:24:00,55.6,52.1,30.03,NW,306,0.0,0.0,88,0.00,,,0.00,0,WeatherCatV1.20B785,2013-10-01 02:24:00,
2013-09-30 22:25:00,55.6,52.1,30.03,NW,306,0.0,0.0,88,0.00,,,0.00,0,WeatherCatV1.20B785,2013-10-01 02:25:00,
2013-09-30 22:26:00,55.5,52.0,30.03,NW,306,0.0,0.0,88,0.00,,,0.00,0,WeatherCatV1.20B785,2013-10-01 02:26:00,
2013-09-30 22:28:00,55.5,52.0,30.03,NW,306,0.0,0.0,88,0.00,,,0.00,0,WeatherCatV1.20B785,2013-10-01 02:28:00,
2013-09-30 22:29:00,55.4,51.9,30.03,NW,306,0.0,0.0,88,0.00,,,0.00,0,WeatherCatV1.20B785,2013-10-01 02:29:00,
2013-09-30 22:30:00,55.4,51.9,30.03,NW,306,0.0,0.0,88,0.00,,,0.00,0,WeatherCatV1.20B785,2013-10-01 02:30:00,
2013-09-30 22:31:00,55.3,51.8,30.03,NW,306,0.0,0.0,88,0.00,,,0.00,0,WeatherCatV1.20B785,2013-10-01 02:31:00,
2013-09-30 22:33:00,55.2,51.7,30.03,NW,306,0.0,0.0,88,0.00,,,0.00,0,WeatherCatV1.20B785,2013-10-01 02:33:00,
2013-09-30 22:34:00,55.2,51.7,30.03,NW,306,0.0,0.0,88,0.00,,,0.00,0,WeatherCatV1.20B785,2013-10-01 02:34:00,
2013-09-30 22:35:00,55.2,51.7,30.03,NW,306,0.0,0.0,88,0.00,,,0.00,0,WeatherCatV1.20B785,2013-10-01 02:35:00,
2013-09-30 22:36:00,55.1,51.6,30.03,NW,306,0.0,0.0,88,0.00,,,0.00,0,WeatherCatV1.20B785,2013-10-01 02:36:00,
2013-09-30 22:39:00,55.0,51.5,30.03,NW,306,0.0,0.0,88,0.00,,,0.00,0,WeatherCatV1.20B785,2013-10-01 02:39:00,
2013-09-30 22:40:00,55.0,51.5,30.03,NW,306,0.0,0.0,88,0.00,,,0.00,0,WeatherCatV1.20B785,2013-10-01 02:40:00,
2013-09-30 22:41:00,54.9,51.4,30.03,NW,306,0.0,0.0,88,0.00,,,0.00,0,WeatherCatV1.20B785,2013-10-01 02:41:00,
2013-09-30 22:42:00,54.9,51.4,30.03,NW,306,0.0,0.0,88,0.00,,,0.00,0,WeatherCatV1.20B785,2013-10-01 02:42:00,
2013-09-30 22:44:00,54.8,51.3,30.03,NW,306,0.0,0.0,88,0.00,,,0.00,0,WeatherCatV1.20B785,2013-10-01 02:44:00,
2013-09-30 22:45:00,54.7,51.2,30.03,NW,306,0.0,0.0,88,0.00,,,0.00,0,WeatherCatV1.20B785,2013-10-01 02:45:00,
2013-09-30 22:46:00,54.7,51.5,30.03,NW,306,0.0,0.0,89,0.00,,,0.00,0,WeatherCatV1.20B785,2013-10-01 02:46:00,
2013-09-30 22:47:00,54.6,51.4,30.03,NW,306,0.0,0.0,89,0.00,,,0.00,0,WeatherCatV1.20B785,2013-10-01 02:47:00,
2013-09-30 22:49:00,54.6,51.4,30.03,NW,306,0.0,0.0,89,0.00,,,0.00,0,WeatherCatV1.20B785,2013-10-01 02:49:00,
2013-09-30 22:50:00,54.6,51.4,30.03,NW,306,0.0,0.0,89,0.00,,,0.00,0,WeatherCatV1.20B785,2013-10-01 02:50:00,
2013-09-30 22:52:00,54.5,51.3,30.03,NW,306,0.0,0.0,89,0.00,,,0.00,0,WeatherCatV1.20B785,2013-10-01 02:52:00,
2013-09-30 22:54:00,54.4,50.9,30.03,NW,306,0.0,0.0,88,0.00,,,0.00,0,WeatherCatV1.20B785,2013-10-01 02:54:00,
2013-09-30 22:55:00,54.4,50.9,30.03,NW,306,0.0,0.0,88,0.00,,,0.00,0,WeatherCatV1.20B785,2013-10-01 02:55:00,
2013-09-30 22:57:00,54.3,50.8,30.03,NW,306,0.0,0.0,88,0.00,,,0.00,0,WeatherCatV1.20B785,2013-10-01 02:57:00,
2013-09-30 22:59:00,54.2,50.7,30.03,NW,306,0.0,0.0,88,0.00,,,0.00,0,WeatherCatV1.20B785,2013-10-01 02:59:00,
2013-09-30 23:00:00,54.2,50.7,30.03,NW,306,0.0,0.0,88,0.00,,,0.00,0,WeatherCatV1.20B785,2013-10-01 03:00:00,
2013-09-30 23:01:00,54.2,50.7,30.03,NW,306,0.0,0.0,88,0.00,,,0.00,0,WeatherCatV1.20B785,2013-10-01 03:01:00,
2013-09-30 23:02:00,54.2,50.7,30.03,NW,306,0.0,0.0,88,0.00,,,0.00,0,WeatherCatV1.20B785,2013-10-01 03:02:00,
2013-09-30 23:05:00,54.1,50.9,30.03,NW,306,0.0,0.0,89,0.00,,,0.00,0,WeatherCatV1.20B785,2013-10-01 03:05:00,
2013-09-30 23:06:00,54.0,50.8,30.03,NW,306,0.0,0.0,89,0.00,,,0.00,0,WeatherCatV1.20B785,2013-10-01 03:06:00,
2013-09-30 23:07:00,54.0,50.8,30.03,NW,306,0.0,0.0,89,0.00,,,0.00,0,WeatherCatV1.20B785,2013-10-01 03:07:00,
2013-09-30 23:10:00,53.9,50.7,30.03,NW,306,0.0,0.0,89,0.00,,,0.00,0,WeatherCatV1.20B785,2013-10-01 03:10:00,
2013-09-30 23:11:00,53.9,50.7,30.03,NW,306,0.0,0.0,89,0.00,,,0.00,0,WeatherCatV1.20B785,2013-10-01 03:11:00,
2013-09-30 23:13:00,53.9,50.7,30.03,NW,306,0.0,0.0,89,0.00,,,0.00,0,WeatherCatV1.20B785,2013-10-01 03:13:00,
2013-09-30 23:15:00,53.8,50.3,30.03,NW,306,0.0,0.0,88,0.00,,,0.00,0,WeatherCatV1.20B785,2013-10-01 03:15:00,
2013-09-30 23:16:00,53.7,50.2,30.03,NW,306,0.0,0.0,88,0.00,,,0.00,0,WeatherCatV1.20B785,2013-10-01 03:16:00,
2013-09-30 23:17:00,53.7,50.2,30.03,NW,306,0.0,0.0,88,0.00,,,0.00,0,WeatherCatV1.20B785,2013-10-01 03:17:00,
2013-09-30 23:19:00,53.6,50.1,30.03,NW,306,0.0,0.0,88,0.00,,,0.00,0,WeatherCatV1.20B785,2013-10-01 03:19:00,
2013-09-30 23:21:00,53.6,50.1,30.03,NW,306,0.0,0.0,88,0.00,,,0.00,0,WeatherCatV1.20B785,2013-10-01 03:21:00,
2013-09-30 23:22:00,53.5,50.0,30.03,NW,306,0.0,0.0,88,0.00,,,0.00,0,WeatherCatV1.20B785,2013-10-01 03:22:00,
2013-09-30 23:24:00,53.5,50.0,30.03,NW,306,0.0,0.0,88,0.00,,,0.00,0,WeatherCatV1.20B785,2013-10-01 03:24:00,
2013-09-30 23:26:00,53.5,50.0,30.03,NW,306,0.0,0.0,88,0.00,,,0.00,0,WeatherCatV1.20B785,2013-10-01 03:26:00,
2013-09-30 23:27:00,53.5,50.0,30.03,NW,306,0.0,0.0,88,0.00,,,0.00,0,WeatherCatV1.20B785,2013-10-01 03:27:00,
2013-09-30 23:30:00,53.5,50.0,30.03,NW,306,0.0,0.0,88,0.00,,,0.00,0,WeatherCatV1.20B785,2013-10-01 03:30:00,
2013-09-30 23:31:00,53.5,50.0,30.03,NW,306,0.0,0.0,88,0.00,,,0.00,0,WeatherCatV1.20B785,2013-10-01 03:31:00,
2013-09-30 23:32:00,53.5,50.0,30.03,NW,306,0.0,0.0,88,0.00,,,0.00,0,WeatherCatV1.20B785,2013-10-01 03:32:00,
2013-09-30 23:35:00,53.4,49.9,30.03,NW,306,0.0,0.0,88,0.00,,,0.00,0,WeatherCatV1.20B785,2013-10-01 03:35:00,
2013-09-30 23:37:00,53.4,49.9,30.03,NW,306,0.0,0.0,88,0.00,,,0.00,0,WeatherCatV1.20B785,2013-10-01 03:37:00,
2013-09-30 23:38:00,53.3,49.8,30.03,NW,306,0.0,0.0,88,0.00,,,0.00,0,WeatherCatV1.20B785,2013-10-01 03:38:00,
2013-09-30 23:40:00,53.2,50.0,30.03,NW,306,0.0,0.0,89,0.00,,,0.00,0,WeatherCatV1.20B785,2013-10-01 03:40:00,
2013-09-30 23:42:00,53.2,50.0,30.03,NW,306,0.0,0.0,89,0.00,,,0.00,0,WeatherCatV1.20B785,2013-10-01 03:42:00,
2013-09-30 23:43:00,53.2,50.0,30.03,NW,306,0.0,0.0,89,0.00,,,0.00,0,WeatherCatV1.20B785,2013-10-01 03:43:00,
2013-09-30 23:46:00,53.1,49.6,30.03,NW,306,0.0,0.0,88,0.00,,,0.00,0,WeatherCatV1.20B785,2013-10-01 03:46:00,
2013-09-30 23:47:00,53.2,49.7,30.03,NW,306,0.0,0.0,88,0.00,,,0.00,0,WeatherCatV1.20B785,2013-10-01 03:47:00,
2013-09-30 23:48:00,53.2,49.7,30.03,NW,306,0.0,0.0,88,0.00,,,0.00,0,WeatherCatV1.20B785,2013-10-01 03:48:00,
2013-09-30 23:51:00,53.3,49.5,30.03,NW,306,0.0,0.0,87,0.00,,,0.00,0,WeatherCatV1.20B785,2013-10-01 03:51:00,
2013-09-30 23:52:00,53.3,49.5,30.03,NW,306,0.0,0.0,87,0.00,,,0.00,0,WeatherCatV1.20B785,2013-10-01 03:52:00,
2013-09-30 23:54:00,53.3,49.5,30.03,NW,306,0.0,0.0,87,0.00,,,0.00,0,WeatherCatV1.20B785,2013-10-01 03:54:00,
2013-09-30 23:56:00,53.3,49.5,30.03,NW,306,0.0,0.0,87,0.00,,,0.00,0,WeatherCatV1.20B785,2013-10-01 03:56:00,
2013-09-30 23:57:00,53.3,49.8,30.03,NW,306,0.0,0.0,88,0.00,,,0.00,0,WeatherCatV1.20B785,2013-10-01 03:57:00,
2013-09-30 23:59:00,53.3,49.8,30.03,NW,306,0.0,0.0,88,0.00,,,0.00,0,WeatherCatV1.20B785,2013-10-01 03:59:00,